Time,TemperatureF,DewpointF,PressureIn,WindDirection,WindDirectionDegrees,WindSpeedMPH,WindSpeedGustMPH,Humidity,HourlyPrecipIn,Conditions,Clouds,dailyrainin,SoftwareType,DateUTC
2013-06-20 00:00:00,58.5,48.7,29.59,WSW,240,3.6,3.6,70,0.00,,---,0.00,VWS V13.01,2013-06-20 07:00:00,
2013-06-20 00:01:00,58.5,48.7,29.59,SE,135,2.2,3.6,70,0.00,,---,0.00,VWS V13.01,2013-06-20 07:01:00,
2013-06-20 00:02:00,58.5,48.7,29.59,SSW,210,3.1,3.6,70,0.00,,---,0.00,VWS V13.01,2013-06-20 07:02:00,
2013-06-20 00:04:00,58.5,48.7,29.59,SSW,210,3.1,3.1,70,0.00,,---,0.00,VWS V13.01,2013-06-20 07:04:00,
2013-06-20 00:05:00,58.3,48.5,29.59,SSW,209,4.0,4.0,70,0.00,,---,0.00,VWS V13.01,2013-06-20 07:05:00,
2013-06-20 00:06:00,58.3,48.5,29.59,SSW,209,4.0,4.0,70,0.00,,---,0.00,VWS V13.01,2013-06-20 07:06:00,
2013-06-20 00:07:00,58.3,48.5,29.59,SSW,209,4.0,4.0,70,0.00,,---,0.00,VWS V13.01,2013-06-20 07:07:00,
2013-06-20 00:09:00,58.3,48.5,29.59,SW,224,0.0,0.0,70,0.00,,---,0.00,VWS V13.01,2013-06-20 07:09:00,
2013-06-20 00:10:00,58.3,48.5,29.59,SSW,213,5.4,5.4,70,0.00,,---,0.00,VWS V13.01,2013-06-20 07:10:00,
2013-06-20 00:12:00,58.3,48.5,29.59,SSW,213,5.4,5.4,70,0.00,,---,0.00,VWS V13.01,2013-06-20 07:12:00,
2013-06-20 00:14:00,58.3,48.5,29.59,SSE,161,2.7,5.4,70,0.00,,---,0.00,VWS V13.01,2013-06-20 07:14:00,
2013-06-20 00:15:00,58.3,48.5,29.59,SSE,161,2.7,5.4,70,0.00,,---,0.00,VWS V13.01,2013-06-20 07:15:00,
2013-06-20 00:17:00,58.3,48.5,29.59,SSE,161,2.7,2.7,70,0.00,,---,0.00,VWS V13.01,2013-06-20 07:17:00,
2013-06-20 00:19:00,58.1,48.4,29.59,WNW,282,3.6,3.6,70,0.00,,---,0.00,VWS V13.01,2013-06-20 07:19:00,
2013-06-20 00:20:00,58.1,48.4,29.59,WNW,282,3.6,3.6,70,0.00,,---,0.00,VWS V13.01,2013-06-20 07:20:00,
2013-06-20 00:22:00,58.1,48.0,29.59,West,274,5.8,5.8,69,0.00,,---,0.00,VWS V13.01,2013-06-20 07:22:00,
2013-06-20 00:24:00,58.1,48.0,29.59,SW,217,4.0,4.0,69,0.00,,---,0.00,VWS V13.01,2013-06-20 07:24:00,
2013-06-20 00:25:00,58.1,48.0,29.59,SW,217,4.0,4.0,69,0.00,,---,0.00,VWS V13.01,2013-06-20 07:25:00,
2013-06-20 00:26:00,58.1,48.0,29.59,SW,217,4.0,4.0,69,0.00,,---,0.00,VWS V13.01,2013-06-20 07:26:00,
2013-06-20 00:27:00,58.1,48.4,29.59,SW,217,4.0,4.0,70,0.00,,---,0.00,VWS V13.01,2013-06-20 07:27:00,
2013-06-20 00:29:00,58.1,48.4,29.59,NW,312,2.2,2.2,70,0.00,,---,0.00,VWS V13.01,2013-06-20 07:29:00,
2013-06-20 00:30:00,58.1,48.4,29.59,NW,312,2.2,2.2,70,0.00,,---,0.00,VWS V13.01,2013-06-20 07:30:00,
2013-06-20 00:31:00,58.1,48.4,29.59,NW,312,2.2,2.2,70,0.00,,---,0.00,VWS V13.01,2013-06-20 07:31:00,
2013-06-20 00:32:00,58.1,48.0,29.59,West,276,2.2,4.0,69,0.00,,---,0.00,VWS V13.01,2013-06-20 07:32:00,
2013-06-20 00:35:00,58.1,48.4,29.59,West,272,3.1,3.1,70,0.00,,---,0.00,VWS V13.01,2013-06-20 07:35:00,
2013-06-20 00:36:00,58.1,48.4,29.59,ESE,102,0.0,3.1,70,0.00,,---,0.00,VWS V13.01,2013-06-20 07:36:00,
2013-06-20 00:37:00,58.1,48.4,29.59,ESE,102,0.0,0.0,70,0.00,,---,0.00,VWS V13.01,2013-06-20 07:37:00,
2013-06-20 00:40:00,58.1,48.4,29.56,ESE,102,0.0,0.0,70,0.00,,---,0.00,VWS V13.01,2013-06-20 07:40:00,
2013-06-20 00:41:00,58.1,48.4,29.56,NNE,14,0.0,0.0,70,0.00,,---,0.00,VWS V13.01,2013-06-20 07:41:00,
2013-06-20 00:42:00,58.1,48.4,29.56,NNE,14,0.0,0.0,70,0.00,,---,0.00,VWS V13.01,2013-06-20 07:42:00,
2013-06-20 00:45:00,57.9,48.2,29.56,NNE,14,0.0,0.0,70,0.00,,---,0.00,VWS V13.01,2013-06-20 07:45:00,
2013-06-20 00:46:00,57.9,48.2,29.56,SSW,212,0.0,0.0,70,0.00,,---,0.00,VWS V13.01,2013-06-20 07:46:00,
2013-06-20 00:47:00,57.9,48.2,29.56,West,259,0.0,0.0,70,0.00,,---,0.00,VWS V13.01,2013-06-20 07:47:00,
2013-06-20 00:48:00,57.9,48.2,29.56,West,259,0.0,0.0,70,0.00,,---,0.00,VWS V13.01,2013-06-20 07:48:00,
2013-06-20 00:50:00,57.9,48.2,29.56,SW,215,0.0,0.0,70,0.00,,---,0.00,VWS V13.01,2013-06-20 07:50:00,
2013-06-20 00:51:00,57.9,48.2,29.56,SW,215,0.0,0.0,70,0.00,,---,0.00,VWS V13.01,2013-06-20 07:51:00,
2013-06-20 00:52:00,57.9,48.2,29.56,SW,215,0.0,0.0,70,0.00,,---,0.00,VWS V13.01,2013-06-20 07:52:00,
2013-06-20 00:53:00,57.9,48.2,29.59,SW,215,0.0,0.0,70,0.00,,---,0.00,VWS V13.01,2013-06-20 07:53:00,
2013-06-20 00:55:00,57.9,48.2,29.59,WNW,283,2.2,2.2,70,0.00,,---,0.00,VWS V13.01,2013-06-20 07:55:00,
2013-06-20 00:56:00,57.9,48.2,29.59,WNW,283,2.2,2.2,70,0.00,,---,0.00,VWS V13.01,2013-06-20 07:56:00,
2013-06-20 00:57:00,57.9,48.2,29.59,WNW,283,2.2,2.2,70,0.00,,---,0.00,VWS V13.01,2013-06-20 07:57:00,
2013-06-20 00:58:00,57.9,48.2,29.59,WNW,283,2.2,2.2,70,0.00,,---,0.00,VWS V13.01,2013-06-20 07:58:00,
2013-06-20 01:00:00,57.9,48.2,29.59,South,180,0.0,0.0,70,0.00,,---,0.00,VWS V13.01,2013-06-20 08:00:00,
2013-06-20 01:01:00,57.9,48.2,29.59,West,276,2.7,2.7,70,0.00,,---,0.00,VWS V13.01,2013-06-20 08:01:00,
2013-06-20 01:02:00,57.9,48.2,29.59,West,276,2.7,2.7,70,0.00,,---,0.00,VWS V13.01,2013-06-20 08:02:00,
2013-06-20 01:03:00,57.9,48.2,29.59,West,276,2.7,2.7,70,0.00,,---,0.00,VWS V13.01,2013-06-20 08:03:00,
2013-06-20 01:05:00,57.7,48.0,29.59,WSW,240,5.4,5.4,70,0.00,,---,0.00,VWS V13.01,2013-06-20 08:05:00,
2013-06-20 01:06:00,57.7,48.0,29.59,WSW,240,5.4,5.4,70,0.00,,---,0.00,VWS V13.01,2013-06-20 08:06:00,
2013-06-20 01:08:00,57.7,48.0,29.59,WNW,282,3.6,5.4,70,0.00,,---,0.00,VWS V13.01,2013-06-20 08:08:00,
2013-06-20 01:10:00,57.7,48.0,29.59,WNW,282,3.6,3.6,70,0.00,,---,0.00,VWS V13.01,2013-06-20 08:10:00,
2013-06-20 01:12:00,57.7,48.4,29.59,WSW,251,0.0,0.0,71,0.00,,---,0.00,VWS V13.01,2013-06-20 08:12:00,
2013-06-20 01:13:00,57.7,48.4,29.59,WSW,251,0.0,0.0,71,0.00,,---,0.00,VWS V13.01,2013-06-20 08:13:00,
2013-06-20 01:15:00,57.7,48.4,29.59,WSW,251,0.0,0.0,71,0.00,,---,0.00,VWS V13.01,2013-06-20 08:15:00,
2013-06-20 01:17:00,57.7,48.4,29.59,ESE,123,0.0,0.0,71,0.00,,---,0.00,VWS V13.01,2013-06-20 08:17:00,
2013-06-20 01:18:00,57.7,48.4,29.59,ESE,123,0.0,0.0,71,0.00,,---,0.00,VWS V13.01,2013-06-20 08:18:00,
2013-06-20 01:20:00,57.7,48.4,29.59,ESE,123,0.0,0.0,71,0.00,,---,0.00,VWS V13.01,2013-06-20 08:20:00,
2013-06-20 01:23:00,57.7,48.4,29.59,SW,230,3.6,3.6,71,0.00,,---,0.00,VWS V13.01,2013-06-20 08:23:00,
2013-06-20 01:25:00,57.7,48.4,29.59,SW,230,0.0,3.6,71,0.00,,---,0.00,VWS V13.01,2013-06-20 08:25:00,
2013-06-20 01:28:00,57.7,48.4,29.59,SW,230,0.0,0.0,71,0.00,,---,0.00,VWS V13.01,2013-06-20 08:28:00,
2013-06-20 01:29:00,57.7,48.4,29.59,SW,230,0.0,0.0,71,0.00,,---,0.00,VWS V13.01,2013-06-20 08:29:00,
2013-06-20 01:30:00,57.7,48.4,29.59,SSW,206,0.0,0.0,71,0.00,,---,0.00,VWS V13.01,2013-06-20 08:30:00,
2013-06-20 01:33:00,57.7,48.4,29.59,SSW,206,0.0,0.0,71,0.00,,---,0.00,VWS V13.01,2013-06-20 08:33:00,
2013-06-20 01:35:00,57.6,48.2,29.59,WSW,244,2.7,2.7,71,0.00,,---,0.00,VWS V13.01,2013-06-20 08:35:00,
2013-06-20 01:38:00,57.6,48.2,29.59,West,277,0.0,2.7,71,0.00,,---,0.00,VWS V13.01,2013-06-20 08:38:00,
2013-06-20 01:41:00,57.6,48.2,29.59,SSW,196,0.0,0.0,71,0.00,,---,0.00,VWS V13.01,2013-06-20 08:41:00,
2013-06-20 01:43:00,57.6,48.2,29.59,SSW,196,0.0,0.0,71,0.00,,---,0.00,VWS V13.01,2013-06-20 08:43:00,
2013-06-20 01:44:00,57.6,48.2,29.59,SSW,196,0.0,0.0,71,0.00,,---,0.00,VWS V13.01,2013-06-20 08:44:00,
2013-06-20 01:46:00,57.6,48.2,29.59,SSW,196,0.0,0.0,71,0.00,,---,0.00,VWS V13.01,2013-06-20 08:46:00,
2013-06-20 01:48:00,57.6,48.2,29.59,WSW,246,0.0,0.0,71,0.00,,---,0.00,VWS V13.01,2013-06-20 08:48:00,
2013-06-20 01:49:00,57.6,48.2,29.59,WSW,246,0.0,0.0,71,0.00,,---,0.00,VWS V13.01,2013-06-20 08:49:00,
2013-06-20 01:51:00,57.6,48.2,29.59,WSW,246,0.0,0.0,71,0.00,,---,0.00,VWS V13.01,2013-06-20 08:51:00,
2013-06-20 01:53:00,57.6,48.2,29.59,West,268,0.0,0.0,71,0.00,,---,0.00,VWS V13.01,2013-06-20 08:53:00,
2013-06-20 01:54:00,57.6,48.2,29.59,SE,143,0.0,0.0,71,0.00,,---,0.00,VWS V13.01,2013-06-20 08:54:00,
2013-06-20 01:56:00,57.6,48.6,29.59,WSW,258,0.0,0.0,72,0.00,,---,0.00,VWS V13.01,2013-06-20 08:56:00,
2013-06-20 01:58:00,57.4,48.4,29.59,WSW,258,0.0,0.0,72,0.00,,---,0.00,VWS V13.01,2013-06-20 08:58:00,
2013-06-20 01:59:00,57.4,48.4,29.59,WSW,258,0.0,0.0,72,0.00,,---,0.00,VWS V13.01,2013-06-20 08:59:00,
2013-06-20 02:01:00,57.4,48.4,29.59,WSW,241,3.1,3.1,72,0.00,,---,0.00,VWS V13.01,2013-06-20 09:01:00,
2013-06-20 02:04:00,57.4,48.4,29.59,WSW,241,3.1,3.1,72,0.00,,---,0.00,VWS V13.01,2013-06-20 09:04:00,
2013-06-20 02:06:00,57.4,48.4,29.59,SSW,200,2.2,2.2,72,0.00,,---,0.00,VWS V13.01,2013-06-20 09:06:00,
2013-06-20 02:09:00,57.4,48.4,29.59,WSW,257,2.2,2.2,72,0.00,,---,0.00,VWS V13.01,2013-06-20 09:09:00,
2013-06-20 02:11:00,57.2,48.6,29.59,WSW,237,2.2,2.2,73,0.00,,---,0.00,VWS V13.01,2013-06-20 09:11:00,
2013-06-20 02:14:00,57.2,48.6,29.56,NNW,330,3.1,3.1,73,0.00,,---,0.00,VWS V13.01,2013-06-20 09:14:00,
2013-06-20 02:15:00,57.2,48.6,29.56,NNW,330,3.1,3.1,73,0.00,,---,0.00,VWS V13.01,2013-06-20 09:15:00,
2013-06-20 02:16:00,57.2,48.6,29.56,NNW,330,3.1,3.1,73,0.00,,---,0.00,VWS V13.01,2013-06-20 09:16:00,
2013-06-20 02:19:00,57.2,48.6,29.56,SW,236,0.0,0.0,73,0.00,,---,0.00,VWS V13.01,2013-06-20 09:19:00,
2013-06-20 02:20:00,57.2,48.6,29.56,SW,236,0.0,0.0,73,0.00,,---,0.00,VWS V13.01,2013-06-20 09:20:00,
2013-06-20 02:22:00,57.2,48.6,29.56,NE,42,0.0,0.0,73,0.00,,---,0.00,VWS V13.01,2013-06-20 09:22:00,
2013-06-20 02:24:00,57.2,48.6,29.56,NNW,329,0.0,0.0,73,0.00,,---,0.00,VWS V13.01,2013-06-20 09:24:00,
2013-06-20 02:25:00,57.2,48.6,29.56,NNW,329,0.0,0.0,73,0.00,,---,0.00,VWS V13.01,2013-06-20 09:25:00,
2013-06-20 02:27:00,57.2,49.0,29.56,SSE,150,0.0,0.0,74,0.00,,---,0.00,VWS V13.01,2013-06-20 09:27:00,
2013-06-20 02:29:00,57.0,48.8,29.56,SSE,150,0.0,0.0,74,0.00,,---,0.00,VWS V13.01,2013-06-20 09:29:00,
2013-06-20 02:30:00,57.0,48.8,29.56,SSE,150,0.0,0.0,74,0.00,,---,0.00,VWS V13.01,2013-06-20 09:30:00,
2013-06-20 02:33:00,57.0,48.8,29.56,ESE,108,0.0,3.6,74,0.00,,---,0.00,VWS V13.01,2013-06-20 09:33:00,
2013-06-20 02:34:00,57.0,48.8,29.56,WNW,292,0.0,0.0,74,0.00,,---,0.00,VWS V13.01,2013-06-20 09:34:00,
2013-06-20 02:35:00,57.0,48.8,29.56,WNW,292,0.0,0.0,74,0.00,,---,0.00,VWS V13.01,2013-06-20 09:35:00,
2013-06-20 02:38:00,57.0,48.8,29.56,West,267,3.1,3.1,74,0.00,,---,0.00,VWS V13.01,2013-06-20 09:38:00,
2013-06-20 02:39:00,56.8,48.7,29.56,West,267,3.1,3.1,74,0.00,,---,0.00,VWS V13.01,2013-06-20 09:39:00,
2013-06-20 02:40:00,56.8,48.7,29.56,West,267,3.1,3.1,74,0.00,,---,0.00,VWS V13.01,2013-06-20 09:40:00,
2013-06-20 02:43:00,56.8,48.7,29.56,SSW,196,3.1,3.1,74,0.00,,---,0.00,VWS V13.01,2013-06-20 09:43:00,
2013-06-20 02:44:00,56.8,48.7,29.56,SSE,153,3.1,3.1,74,0.00,,---,0.00,VWS V13.01,2013-06-20 09:44:00,
2013-06-20 02:45:00,56.8,48.7,29.56,NNE,32,0.0,3.1,74,0.00,,---,0.00,VWS V13.01,2013-06-20 09:45:00,
2013-06-20 02:48:00,57.0,49.2,29.56,NW,310,2.7,2.7,75,0.00,,---,0.00,VWS V13.01,2013-06-20 09:48:00,
2013-06-20 02:50:00,57.0,48.8,29.56,West,263,2.7,2.7,74,0.00,,---,0.00,VWS V13.01,2013-06-20 09:50:00,
2013-06-20 02:53:00,56.8,49.0,29.56,West,263,2.7,2.7,75,0.00,,---,0.00,VWS V13.01,2013-06-20 09:53:00,
2013-06-20 02:55:00,56.8,49.0,29.56,SSW,213,2.7,2.7,75,0.00,,---,0.00,VWS V13.01,2013-06-20 09:55:00,
2013-06-20 02:56:00,56.8,49.0,29.56,SSW,213,2.7,2.7,75,0.00,,---,0.00,VWS V13.01,2013-06-20 09:56:00,
2013-06-20 02:58:00,56.8,49.0,29.56,NW,305,2.7,2.7,75,0.00,,---,0.00,VWS V13.01,2013-06-20 09:58:00,
2013-06-20 03:00:00,56.8,49.0,29.56,NW,305,2.7,2.7,75,0.00,,---,0.00,VWS V13.01,2013-06-20 10:00:00,
2013-06-20 03:01:00,56.8,49.0,29.56,WSW,246,3.6,3.6,75,0.00,,---,0.00,VWS V13.01,2013-06-20 10:01:00,
2013-06-20 03:03:00,56.8,49.0,29.56,WSW,248,4.0,4.0,75,0.00,,---,0.00,VWS V13.01,2013-06-20 10:03:00,
2013-06-20 03:05:00,56.8,49.0,29.56,WSW,248,4.0,4.0,75,0.00,,---,0.00,VWS V13.01,2013-06-20 10:05:00,
2013-06-20 03:06:00,56.8,49.0,29.56,West,276,3.6,4.0,75,0.00,,---,0.00,VWS V13.01,2013-06-20 10:06:00,
2013-06-20 03:08:00,56.7,48.8,29.56,SSW,194,4.9,4.9,75,0.00,,---,0.00,VWS V13.01,2013-06-20 10:08:00,
2013-06-20 03:10:00,56.7,48.8,29.56,SSW,194,4.9,4.9,75,0.00,,---,0.00,VWS V13.01,2013-06-20 10:10:00,
2013-06-20 03:11:00,56.7,48.8,29.56,SSW,194,4.9,4.9,75,0.00,,---,0.00,VWS V13.01,2013-06-20 10:11:00,
2013-06-20 03:13:00,56.8,49.0,29.56,WNW,286,3.6,3.6,75,0.00,,---,0.00,VWS V13.01,2013-06-20 10:13:00,
2013-06-20 03:16:00,56.8,49.0,29.56,SW,217,2.7,3.6,75,0.00,,---,0.00,VWS V13.01,2013-06-20 10:16:00,
2013-06-20 03:18:00,56.7,48.8,29.56,West,279,3.6,3.6,75,0.00,,---,0.00,VWS V13.01,2013-06-20 10:18:00,
2013-06-20 03:21:00,56.7,48.8,29.56,WNW,301,5.8,5.8,75,0.00,,---,0.00,VWS V13.01,2013-06-20 10:21:00,
2013-06-20 03:23:00,56.7,48.8,29.56,WNW,301,5.8,5.8,75,0.00,,---,0.00,VWS V13.01,2013-06-20 10:23:00,
2013-06-20 03:26:00,56.7,48.8,29.56,WSW,257,0.0,0.0,75,0.00,,---,0.00,VWS V13.01,2013-06-20 10:26:00,
2013-06-20 03:29:00,56.7,49.2,29.56,WSW,239,2.2,2.2,76,0.00,,---,0.00,VWS V13.01,2013-06-20 10:29:00,
2013-06-20 03:31:00,56.7,49.2,29.56,SW,234,4.9,4.9,76,0.00,,---,0.00,VWS V13.01,2013-06-20 10:31:00,
2013-06-20 03:32:00,56.7,49.2,29.56,SW,234,4.9,4.9,76,0.00,,---,0.00,VWS V13.01,2013-06-20 10:32:00,
2013-06-20 03:34:00,56.7,49.2,29.56,West,270,3.6,4.9,76,0.00,,---,0.00,VWS V13.01,2013-06-20 10:34:00,
2013-06-20 03:36:00,56.7,49.2,29.56,West,270,3.6,3.6,76,0.00,,---,0.00,VWS V13.01,2013-06-20 10:36:00,
2013-06-20 03:37:00,56.7,49.5,29.56,West,270,3.6,3.6,77,0.00,,---,0.00,VWS V13.01,2013-06-20 10:37:00,
2013-06-20 03:39:00,56.7,49.5,29.56,WSW,242,4.0,4.0,77,0.00,,---,0.00,VWS V13.01,2013-06-20 10:39:00,
2013-06-20 03:41:00,56.7,49.5,29.56,NW,311,5.4,5.4,77,0.00,,---,0.00,VWS V13.01,2013-06-20 10:41:00,
2013-06-20 03:42:00,56.7,49.5,29.56,NW,311,5.4,5.4,77,0.00,,---,0.00,VWS V13.01,2013-06-20 10:42:00,
2013-06-20 03:44:00,56.5,49.4,29.56,South,182,0.0,0.0,77,0.00,,---,0.00,VWS V13.01,2013-06-20 10:44:00,
2013-06-20 03:46:00,56.7,49.5,29.56,South,182,0.0,0.0,77,0.00,,---,0.00,VWS V13.01,2013-06-20 10:46:00,
2013-06-20 03:47:00,56.7,49.9,29.56,South,182,0.0,0.0,78,0.00,,---,0.00,VWS V13.01,2013-06-20 10:47:00,
2013-06-20 03:49:00,56.5,49.7,29.56,SSE,160,0.0,0.0,78,0.00,,---,0.00,VWS V13.01,2013-06-20 10:49:00,
2013-06-20 03:51:00,56.3,49.9,29.56,SE,140,2.7,2.7,79,0.00,,---,0.00,VWS V13.01,2013-06-20 10:51:00,
2013-06-20 03:52:00,56.3,49.9,29.56,SE,140,2.7,2.7,79,0.00,,---,0.00,VWS V13.01,2013-06-20 10:52:00,
2013-06-20 03:54:00,56.1,49.7,29.56,ESE,118,2.2,2.2,79,0.00,,---,0.00,VWS V13.01,2013-06-20 10:54:00,
2013-06-20 03:56:00,56.1,50.0,29.56,South,177,3.1,3.1,80,0.00,,---,0.00,VWS V13.01,2013-06-20 10:56:00,
2013-06-20 03:57:00,56.1,50.0,29.56,South,177,3.1,3.1,80,0.00,,---,0.00,VWS V13.01,2013-06-20 10:57:00,
2013-06-20 03:59:00,55.9,49.9,29.56,South,177,3.1,3.1,80,0.00,,---,0.00,VWS V13.01,2013-06-20 10:59:00,
2013-06-20 04:01:00,55.9,50.2,29.56,SSW,200,0.0,0.0,81,0.00,,---,0.00,VWS V13.01,2013-06-20 11:01:00,
2013-06-20 04:02:00,55.9,50.2,29.56,SSW,200,0.0,0.0,81,0.00,,---,0.00,VWS V13.01,2013-06-20 11:02:00,
2013-06-20 04:05:00,55.9,50.2,29.56,West,273,0.0,0.0,81,0.00,,---,0.00,VWS V13.01,2013-06-20 11:05:00,
2013-06-20 04:06:00,55.9,50.2,29.56,West,261,2.2,2.2,81,0.00,,---,0.00,VWS V13.01,2013-06-20 11:06:00,
2013-06-20 04:07:00,55.9,50.2,29.56,West,261,2.2,2.2,81,0.00,,---,0.04,VWS V13.01,2013-06-20 11:07:00,
2013-06-20 04:10:00,55.9,50.5,29.56,West,261,2.2,2.2,82,0.04,,---,0.04,VWS V13.01,2013-06-20 11:10:00,
2013-06-20 04:11:00,55.8,50.4,29.56,West,259,4.9,4.9,82,0.04,,---,0.04,VWS V13.01,2013-06-20 11:11:00,
2013-06-20 04:12:00,55.8,50.4,29.56,West,259,4.9,4.9,82,0.04,,---,0.04,VWS V13.01,2013-06-20 11:12:00,
2013-06-20 04:15:00,55.8,50.4,29.56,SSW,193,0.0,0.0,82,0.04,,---,0.04,VWS V13.01,2013-06-20 11:15:00,
2013-06-20 04:16:00,55.8,50.4,29.56,SSW,193,0.0,0.0,82,0.04,,---,0.04,VWS V13.01,2013-06-20 11:16:00,
2013-06-20 04:17:00,55.8,50.4,29.56,SSW,193,0.0,0.0,82,0.04,,---,0.04,VWS V13.01,2013-06-20 11:17:00,
2013-06-20 04:20:00,55.6,50.5,29.56,West,264,2.2,2.2,83,0.04,,---,0.04,VWS V13.01,2013-06-20 11:20:00,
2013-06-20 04:21:00,55.6,50.5,29.56,West,264,2.2,2.2,83,0.04,,---,0.04,VWS V13.01,2013-06-20 11:21:00,
2013-06-20 04:22:00,55.6,50.5,29.56,West,264,2.2,2.2,83,0.04,,---,0.04,VWS V13.01,2013-06-20 11:22:00,
2013-06-20 04:25:00,55.6,50.5,29.56,NNE,29,0.0,0.0,83,0.04,,---,0.04,VWS V13.01,2013-06-20 11:25:00,
2013-06-20 04:26:00,55.6,50.5,29.56,NNE,29,0.0,0.0,83,0.04,,---,0.04,VWS V13.01,2013-06-20 11:26:00,
2013-06-20 04:27:00,55.6,50.5,29.56,NNE,29,0.0,0.0,83,0.04,,---,0.04,VWS V13.01,2013-06-20 11:27:00,
2013-06-20 04:28:00,55.8,50.7,29.56,NNE,29,0.0,0.0,83,0.04,,---,0.04,VWS V13.01,2013-06-20 11:28:00,
2013-06-20 04:30:00,55.6,50.5,29.56,NNE,29,0.0,0.0,83,0.04,,---,0.04,VWS V13.01,2013-06-20 11:30:00,
2013-06-20 04:32:00,55.8,50.7,29.56,ESE,121,0.0,0.0,83,0.04,,---,0.04,VWS V13.01,2013-06-20 11:32:00,
2013-06-20 04:33:00,55.8,50.7,29.56,ESE,121,0.0,0.0,83,0.04,,---,0.04,VWS V13.01,2013-06-20 11:33:00,
2013-06-20 04:35:00,55.6,50.8,29.56,ESE,121,0.0,0.0,84,0.04,,---,0.04,VWS V13.01,2013-06-20 11:35:00,
2013-06-20 04:37:00,55.6,50.8,29.56,WSW,243,3.1,3.1,84,0.04,,---,0.04,VWS V13.01,2013-06-20 11:37:00,
2013-06-20 04:38:00,55.6,50.8,29.56,WSW,243,3.1,3.1,84,0.04,,---,0.04,VWS V13.01,2013-06-20 11:38:00,
2013-06-20 04:40:00,55.4,50.7,29.56,SSW,211,0.0,3.1,84,0.04,,---,0.04,VWS V13.01,2013-06-20 11:40:00,
2013-06-20 04:42:00,55.4,50.7,29.56,SSW,211,0.0,0.0,84,0.04,,---,0.04,VWS V13.01,2013-06-20 11:42:00,
2013-06-20 04:43:00,55.6,50.8,29.56,SSW,211,0.0,0.0,84,0.04,,---,0.04,VWS V13.01,2013-06-20 11:43:00,
2013-06-20 04:45:00,55.4,50.7,29.56,NE,50,0.0,0.0,84,0.04,,---,0.04,VWS V13.01,2013-06-20 11:45:00,
2013-06-20 04:47:00,55.6,50.8,29.56,WSW,239,0.0,0.0,84,0.04,,---,0.04,VWS V13.01,2013-06-20 11:47:00,
2013-06-20 04:48:00,55.4,50.7,29.56,WSW,239,0.0,0.0,84,0.04,,---,0.04,VWS V13.01,2013-06-20 11:48:00,
2013-06-20 04:50:00,55.2,50.8,29.56,SSE,153,3.1,3.1,85,0.04,,---,0.04,VWS V13.01,2013-06-20 11:50:00,
2013-06-20 04:52:00,55.4,50.7,29.56,SSE,153,3.1,3.1,84,0.04,,---,0.04,VWS V13.01,2013-06-20 11:52:00,
2013-06-20 04:53:00,55.4,50.7,29.56,SSE,153,3.1,3.1,84,0.04,,---,0.04,VWS V13.01,2013-06-20 11:53:00,
2013-06-20 04:55:00,55.2,50.8,29.56,WSW,251,2.2,2.7,85,0.04,,---,0.04,VWS V13.01,2013-06-20 11:55:00,
2013-06-20 04:57:00,55.2,50.8,29.56,WSW,251,2.2,2.2,85,0.04,,---,0.04,VWS V13.01,2013-06-20 11:57:00,
2013-06-20 04:58:00,55.2,50.8,29.56,SW,230,3.6,4.0,85,0.04,,---,0.04,VWS V13.01,2013-06-20 11:58:00,
2013-06-20 05:01:00,54.9,50.4,29.56,WSW,243,2.7,2.7,85,0.04,,---,0.04,VWS V13.01,2013-06-20 12:01:00,
2013-06-20 05:02:00,54.9,50.4,29.56,WSW,243,2.7,2.7,85,0.04,,---,0.04,VWS V13.01,2013-06-20 12:02:00,
2013-06-20 05:03:00,54.9,50.4,29.56,SW,236,0.0,2.7,85,0.04,,---,0.04,VWS V13.01,2013-06-20 12:03:00,
2013-06-20 05:06:00,54.9,50.8,29.56,SW,236,0.0,0.0,86,0.04,,---,0.04,VWS V13.01,2013-06-20 12:06:00,
2013-06-20 05:07:00,54.9,50.8,29.56,SW,229,2.2,2.2,86,0.04,,---,0.04,VWS V13.01,2013-06-20 12:07:00,
2013-06-20 05:08:00,54.9,50.8,29.56,SW,229,2.2,2.2,86,0.04,,---,0.04,VWS V13.01,2013-06-20 12:08:00,
2013-06-20 05:11:00,55.0,50.9,29.56,SW,231,3.1,3.1,86,0.00,,---,0.04,VWS V13.01,2013-06-20 12:11:00,
2013-06-20 05:12:00,54.9,50.8,29.56,SW,231,3.1,3.1,86,0.00,,---,0.04,VWS V13.01,2013-06-20 12:12:00,
2013-06-20 05:13:00,54.9,50.8,29.56,SW,216,2.2,3.1,86,0.04,,---,0.08,VWS V13.01,2013-06-20 12:13:00,
2013-06-20 05:16:00,54.9,50.8,29.56,West,265,2.7,2.7,86,0.04,,---,0.08,VWS V13.01,2013-06-20 12:16:00,
2013-06-20 05:17:00,54.9,50.8,29.56,West,271,4.0,4.0,86,0.04,,---,0.08,VWS V13.01,2013-06-20 12:17:00,
2013-06-20 05:18:00,54.7,50.6,29.56,West,271,4.0,4.0,86,0.04,,---,0.08,VWS V13.01,2013-06-20 12:18:00,
2013-06-20 05:21:00,54.7,50.9,29.56,SW,235,2.2,2.2,87,0.04,,---,0.08,VWS V13.01,2013-06-20 12:21:00,
2013-06-20 05:22:00,54.5,50.7,29.56,SW,235,2.2,2.2,87,0.04,,---,0.08,VWS V13.01,2013-06-20 12:22:00,
2013-06-20 05:23:00,54.5,50.7,29.56,SW,235,2.2,2.2,87,0.04,,---,0.08,VWS V13.01,2013-06-20 12:23:00,
2013-06-20 05:24:00,54.5,50.7,29.56,SW,235,2.2,2.2,87,0.04,,---,0.08,VWS V13.01,2013-06-20 12:24:00,
2013-06-20 05:26:00,54.5,50.7,29.56,SSW,194,2.2,2.2,87,0.04,,---,0.08,VWS V13.01,2013-06-20 12:26:00,
2013-06-20 05:27:00,54.5,50.7,29.56,SSW,194,2.2,2.2,87,0.04,,---,0.08,VWS V13.01,2013-06-20 12:27:00,
2013-06-20 05:28:00,54.7,50.9,29.56,SSW,194,2.2,2.2,87,0.04,,---,0.08,VWS V13.01,2013-06-20 12:28:00,
2013-06-20 05:29:00,54.7,50.9,29.56,SSW,194,0.0,0.0,87,0.04,,---,0.08,VWS V13.01,2013-06-20 12:29:00,
2013-06-20 05:31:00,54.7,50.9,29.56,SSW,197,0.0,0.0,87,0.04,,---,0.08,VWS V13.01,2013-06-20 12:31:00,
2013-06-20 05:32:00,54.7,50.9,29.56,SSW,197,0.0,0.0,87,0.04,,---,0.08,VWS V13.01,2013-06-20 12:32:00,
2013-06-20 05:33:00,54.7,50.9,29.56,SSW,197,0.0,0.0,87,0.04,,---,0.08,VWS V13.01,2013-06-20 12:33:00,
2013-06-20 05:34:00,54.7,50.9,29.56,WSW,245,4.0,4.0,87,0.04,,---,0.08,VWS V13.01,2013-06-20 12:34:00,
2013-06-20 05:36:00,54.7,50.9,29.56,WSW,245,4.0,4.0,87,0.04,,---,0.08,VWS V13.01,2013-06-20 12:36:00,
2013-06-20 05:37:00,54.5,50.7,29.56,WSW,245,4.0,4.0,87,0.04,,---,0.08,VWS V13.01,2013-06-20 12:37:00,
2013-06-20 05:38:00,54.7,50.9,29.56,SSW,202,0.0,4.0,87,0.04,,---,0.08,VWS V13.01,2013-06-20 12:38:00,
2013-06-20 05:39:00,54.7,50.9,29.56,SSW,202,0.0,0.0,87,0.04,,---,0.08,VWS V13.01,2013-06-20 12:39:00,
2013-06-20 05:42:00,54.5,50.7,29.56,NW,322,3.1,3.1,87,0.04,,---,0.08,VWS V13.01,2013-06-20 12:42:00,
2013-06-20 05:43:00,54.5,50.7,29.56,SSW,213,0.0,0.0,87,0.04,,---,0.08,VWS V13.01,2013-06-20 12:43:00,
2013-06-20 05:44:00,54.5,50.7,29.56,SSW,213,0.0,0.0,87,0.04,,---,0.08,VWS V13.01,2013-06-20 12:44:00,
2013-06-20 05:47:00,54.5,51.0,29.56,SSW,213,0.0,0.0,88,0.04,,---,0.08,VWS V13.01,2013-06-20 12:47:00,
2013-06-20 05:48:00,54.5,51.0,29.56,SSW,213,0.0,0.0,88,0.04,,---,0.08,VWS V13.01,2013-06-20 12:48:00,
2013-06-20 05:49:00,54.5,51.0,29.56,SSW,213,0.0,0.0,88,0.04,,---,0.08,VWS V13.01,2013-06-20 12:49:00,
2013-06-20 05:52:00,54.5,51.0,29.53,West,263,0.0,0.0,88,0.04,,---,0.08,VWS V13.01,2013-06-20 12:52:00,
2013-06-20 05:53:00,54.5,51.0,29.53,West,263,0.0,0.0,88,0.04,,---,0.08,VWS V13.01,2013-06-20 12:53:00,
2013-06-20 05:54:00,54.5,51.0,29.53,West,270,4.0,4.0,88,0.04,,---,0.08,VWS V13.01,2013-06-20 12:54:00,
2013-06-20 05:55:00,54.3,50.8,29.53,West,270,4.0,4.0,88,0.04,,---,0.08,VWS V13.01,2013-06-20 12:55:00,
2013-06-20 05:57:00,54.3,50.8,29.53,SW,219,3.6,3.6,88,0.08,,---,0.12,VWS V13.01,2013-06-20 12:57:00,
2013-06-20 05:58:00,54.3,50.8,29.53,SW,219,3.6,3.6,88,0.08,,---,0.12,VWS V13.01,2013-06-20 12:58:00,
2013-06-20 05:59:00,54.3,50.8,29.53,SW,219,3.6,3.6,88,0.08,,---,0.12,VWS V13.01,2013-06-20 12:59:00,
2013-06-20 06:00:00,54.3,50.8,29.53,SW,219,3.6,3.6,88,0.08,,---,0.12,VWS V13.01,2013-06-20 13:00:00,
2013-06-20 06:02:00,54.3,50.8,29.53,WSW,250,4.0,4.0,88,0.08,,---,0.12,VWS V13.01,2013-06-20 13:02:00,
2013-06-20 06:03:00,54.3,50.8,29.53,WSW,250,4.0,4.0,88,0.08,,---,0.12,VWS V13.01,2013-06-20 13:03:00,
2013-06-20 06:04:00,54.3,50.8,29.53,WSW,241,2.2,2.2,88,0.08,,---,0.12,VWS V13.01,2013-06-20 13:04:00,
2013-06-20 06:05:00,54.3,50.8,29.53,WSW,241,2.2,2.2,88,0.08,,---,0.12,VWS V13.01,2013-06-20 13:05:00,
2013-06-20 06:07:00,54.1,50.7,29.53,West,270,2.2,2.2,88,0.08,,---,0.12,VWS V13.01,2013-06-20 13:07:00,
2013-06-20 06:08:00,54.1,50.7,29.53,West,270,2.2,2.2,88,0.08,,---,0.12,VWS V13.01,2013-06-20 13:08:00,
2013-06-20 06:09:00,54.3,50.8,29.53,WSW,257,3.6,3.6,88,0.08,,---,0.12,VWS V13.01,2013-06-20 13:09:00,
2013-06-20 06:10:00,54.1,50.7,29.53,SSW,197,0.0,0.0,88,0.08,,---,0.12,VWS V13.01,2013-06-20 13:10:00,
2013-06-20 06:12:00,54.1,50.7,29.53,SSW,197,0.0,0.0,88,0.08,,---,0.12,VWS V13.01,2013-06-20 13:12:00,
2013-06-20 06:13:00,54.1,50.7,29.53,WSW,252,0.0,0.0,88,0.08,,---,0.12,VWS V13.01,2013-06-20 13:13:00,
2013-06-20 06:14:00,54.1,50.7,29.53,WSW,252,0.0,0.0,88,0.04,,---,0.12,VWS V13.01,2013-06-20 13:14:00,
2013-06-20 06:15:00,54.1,50.7,29.53,WSW,252,0.0,0.0,88,0.04,,---,0.12,VWS V13.01,2013-06-20 13:15:00,
2013-06-20 06:18:00,54.1,50.7,29.53,West,268,0.0,0.0,88,0.04,,---,0.12,VWS V13.01,2013-06-20 13:18:00,
2013-06-20 06:19:00,54.1,50.7,29.53,West,268,0.0,0.0,88,0.04,,---,0.12,VWS V13.01,2013-06-20 13:19:00,
2013-06-20 06:20:00,54.1,50.7,29.53,West,279,2.7,2.7,88,0.04,,---,0.12,VWS V13.01,2013-06-20 13:20:00,
2013-06-20 06:23:00,54.0,50.5,29.53,SSW,194,0.0,0.0,88,0.04,,---,0.12,VWS V13.01,2013-06-20 13:23:00,
2013-06-20 06:24:00,54.0,50.5,29.53,SSW,195,0.0,0.0,88,0.04,,---,0.12,VWS V13.01,2013-06-20 13:24:00,
2013-06-20 06:26:00,54.0,50.8,29.53,SSW,195,0.0,0.0,89,0.04,,---,0.12,VWS V13.01,2013-06-20 13:26:00,
2013-06-20 06:28:00,54.0,50.8,29.53,WSW,257,5.8,5.8,89,0.04,,---,0.12,VWS V13.01,2013-06-20 13:28:00,
2013-06-20 06:29:00,54.0,50.8,29.53,WSW,257,5.8,5.8,89,0.04,,---,0.12,VWS V13.01,2013-06-20 13:29:00,
2013-06-20 06:31:00,53.8,50.6,29.53,WSW,257,5.8,5.8,89,0.04,,---,0.12,VWS V13.01,2013-06-20 13:31:00,
2013-06-20 06:33:00,54.0,50.8,29.53,SSE,162,2.2,2.2,89,0.04,,---,0.12,VWS V13.01,2013-06-20 13:33:00,
2013-06-20 06:34:00,54.0,50.8,29.53,SSE,162,0.0,2.2,89,0.04,,---,0.12,VWS V13.01,2013-06-20 13:34:00,
2013-06-20 06:36:00,54.1,51.0,29.53,ENE,72,0.0,0.0,89,0.04,,---,0.12,VWS V13.01,2013-06-20 13:36:00,
2013-06-20 06:38:00,54.0,50.8,29.53,SE,145,0.0,0.0,89,0.04,,---,0.12,VWS V13.01,2013-06-20 13:38:00,
2013-06-20 06:39:00,54.0,50.8,29.53,SE,145,0.0,0.0,89,0.04,,---,0.12,VWS V13.01,2013-06-20 13:39:00,
2013-06-20 06:41:00,54.0,50.8,29.53,SW,223,3.1,3.1,89,0.08,,---,0.16,VWS V13.01,2013-06-20 13:41:00,
2013-06-20 06:43:00,54.1,51.0,29.53,West,270,0.0,0.0,89,0.08,,---,0.16,VWS V13.01,2013-06-20 13:43:00,
2013-06-20 06:44:00,54.0,50.8,29.53,West,270,0.0,0.0,89,0.08,,---,0.16,VWS V13.01,2013-06-20 13:44:00,
2013-06-20 06:45:00,54.0,50.8,29.53,WSW,241,0.0,0.0,89,0.08,,---,0.16,VWS V13.01,2013-06-20 13:45:00,
2013-06-20 06:46:00,54.0,50.8,29.53,SW,217,0.0,0.0,89,0.08,,---,0.16,VWS V13.01,2013-06-20 13:46:00,
2013-06-20 06:49:00,54.0,50.8,29.53,West,268,3.6,3.6,89,0.08,,---,0.16,VWS V13.01,2013-06-20 13:49:00,
2013-06-20 06:50:00,54.1,51.0,29.53,West,268,3.6,3.6,89,0.08,,---,0.16,VWS V13.01,2013-06-20 13:50:00,
2013-06-20 06:52:00,54.0,50.8,29.53,West,268,3.6,3.6,89,0.08,,---,0.16,VWS V13.01,2013-06-20 13:52:00,
2013-06-20 06:54:00,54.0,50.8,29.53,SW,225,0.0,0.0,89,0.08,,---,0.16,VWS V13.01,2013-06-20 13:54:00,
2013-06-20 06:55:00,54.0,50.8,29.53,SW,225,0.0,0.0,89,0.08,,---,0.16,VWS V13.01,2013-06-20 13:55:00,
2013-06-20 06:57:00,54.0,50.8,29.53,SSE,164,0.0,0.0,89,0.04,,---,0.16,VWS V13.01,2013-06-20 13:57:00,
2013-06-20 06:59:00,54.0,50.8,29.53,WSW,244,0.0,0.0,89,0.04,,---,0.16,VWS V13.01,2013-06-20 13:59:00,
2013-06-20 07:00:00,54.0,50.8,29.53,WSW,249,0.0,0.0,89,0.04,,---,0.16,VWS V13.01,2013-06-20 14:00:00,
2013-06-20 07:02:00,54.0,50.8,29.53,WSW,249,0.0,0.0,89,0.04,,---,0.16,VWS V13.01,2013-06-20 14:02:00,
2013-06-20 07:04:00,54.0,50.8,29.53,West,279,0.0,0.0,89,0.04,,---,0.16,VWS V13.01,2013-06-20 14:04:00,
2013-06-20 07:05:00,54.0,50.8,29.53,West,279,0.0,0.0,89,0.04,,---,0.16,VWS V13.01,2013-06-20 14:05:00,
2013-06-20 07:07:00,54.0,50.8,29.53,West,265,0.0,0.0,89,0.04,,---,0.16,VWS V13.01,2013-06-20 14:07:00,
2013-06-20 07:09:00,54.0,50.8,29.53,SW,231,0.0,0.0,89,0.04,,---,0.16,VWS V13.01,2013-06-20 14:09:00,
2013-06-20 07:10:00,54.0,50.8,29.53,SW,231,0.0,0.0,89,0.04,,---,0.16,VWS V13.01,2013-06-20 14:10:00,
2013-06-20 07:12:00,54.0,50.8,29.53,SW,224,0.0,0.0,89,0.04,,---,0.16,VWS V13.01,2013-06-20 14:12:00,
2013-06-20 07:15:00,54.0,51.1,29.53,West,259,0.0,0.0,90,0.04,,---,0.16,VWS V13.01,2013-06-20 14:15:00,
2013-06-20 07:17:00,54.0,51.1,29.53,WSW,247,0.0,0.0,90,0.04,,---,0.16,VWS V13.01,2013-06-20 14:17:00,
2013-06-20 07:20:00,54.0,51.1,29.53,SSW,196,0.0,0.0,90,0.04,,---,0.16,VWS V13.01,2013-06-20 14:20:00,
2013-06-20 07:21:00,54.1,51.3,29.53,SSW,196,0.0,0.0,90,0.04,,---,0.16,VWS V13.01,2013-06-20 14:21:00,
2013-06-20 07:22:00,54.1,51.3,29.53,SSW,196,0.0,0.0,90,0.04,,---,0.16,VWS V13.01,2013-06-20 14:22:00,
2013-06-20 07:25:00,54.1,51.3,29.53,SW,233,0.0,0.0,90,0.04,,---,0.16,VWS V13.01,2013-06-20 14:25:00,
2013-06-20 07:26:00,54.1,51.3,29.53,SW,233,0.0,0.0,90,0.04,,---,0.16,VWS V13.01,2013-06-20 14:26:00,
2013-06-20 07:27:00,54.1,51.3,29.53,WNW,294,0.0,0.0,90,0.04,,---,0.16,VWS V13.01,2013-06-20 14:27:00,
2013-06-20 07:30:00,54.0,51.1,29.53,WSW,243,2.2,2.2,90,0.04,,---,0.16,VWS V13.01,2013-06-20 14:30:00,
2013-06-20 07:31:00,54.0,51.1,29.53,WSW,243,2.2,2.2,90,0.04,,---,0.16,VWS V13.01,2013-06-20 14:31:00,
2013-06-20 07:32:00,54.0,51.1,29.53,WSW,243,2.2,2.2,90,0.04,,---,0.16,VWS V13.01,2013-06-20 14:32:00,
2013-06-20 07:35:00,54.1,51.3,29.53,SW,214,2.7,2.7,90,0.04,,---,0.16,VWS V13.01,2013-06-20 14:35:00,
2013-06-20 07:36:00,54.3,51.5,29.53,SW,214,2.7,2.7,90,0.04,,---,0.16,VWS V13.01,2013-06-20 14:36:00,
2013-06-20 07:37:00,54.3,51.5,29.53,SW,214,2.7,2.7,90,0.04,,---,0.16,VWS V13.01,2013-06-20 14:37:00,
2013-06-20 07:40:00,54.3,51.5,29.53,SW,216,0.0,0.0,90,0.04,,---,0.16,VWS V13.01,2013-06-20 14:40:00,
2013-06-20 07:41:00,54.5,51.6,29.53,SW,216,0.0,0.0,90,0.04,,---,0.16,VWS V13.01,2013-06-20 14:41:00,
2013-06-20 07:42:00,54.5,51.6,29.53,SSW,207,0.0,0.0,90,0.00,,---,0.16,VWS V13.01,2013-06-20 14:42:00,
2013-06-20 07:45:00,54.5,51.6,29.53,SSW,207,0.0,0.0,90,0.04,,---,0.20,VWS V13.01,2013-06-20 14:45:00,
2013-06-20 07:46:00,54.3,51.5,29.53,SSW,207,0.0,0.0,90,0.04,,---,0.20,VWS V13.01,2013-06-20 14:46:00,
2013-06-20 07:47:00,54.3,51.5,29.53,WSW,246,3.1,3.1,90,0.04,,---,0.20,VWS V13.01,2013-06-20 14:47:00,
2013-06-20 07:50:00,54.5,51.6,29.53,SSW,210,0.0,0.0,90,0.04,,---,0.20,VWS V13.01,2013-06-20 14:50:00,
2013-06-20 07:51:00,54.5,51.6,29.53,SSE,155,0.0,0.0,90,0.04,,---,0.20,VWS V13.01,2013-06-20 14:51:00,
2013-06-20 07:52:00,54.5,51.6,29.53,SSE,155,0.0,0.0,90,0.04,,---,0.20,VWS V13.01,2013-06-20 14:52:00,
2013-06-20 07:55:00,54.5,51.9,29.53,WSW,243,0.0,4.0,91,0.04,,---,0.20,VWS V13.01,2013-06-20 14:55:00,
2013-06-20 07:56:00,54.5,51.9,29.53,WSW,243,0.0,0.0,91,0.04,,---,0.20,VWS V13.01,2013-06-20 14:56:00,
2013-06-20 07:57:00,54.5,51.9,29.53,WSW,243,0.0,0.0,91,0.04,,---,0.20,VWS V13.01,2013-06-20 14:57:00,
2013-06-20 08:01:00,54.5,51.9,29.53,WSW,240,2.2,2.2,91,0.04,,---,0.20,VWS V13.01,2013-06-20 15:01:00,
2013-06-20 08:02:00,54.5,51.9,29.53,SSW,192,3.1,3.1,91,0.04,,---,0.20,VWS V13.01,2013-06-20 15:02:00,
2013-06-20 08:03:00,54.5,51.9,29.53,SSW,192,3.1,3.1,91,0.04,,---,0.20,VWS V13.01,2013-06-20 15:03:00,
2013-06-20 08:06:00,54.5,51.9,29.53,WNW,302,0.0,0.0,91,0.04,,---,0.20,VWS V13.01,2013-06-20 15:06:00,
2013-06-20 08:07:00,54.5,51.9,29.53,NW,305,0.0,0.0,91,0.04,,---,0.20,VWS V13.01,2013-06-20 15:07:00,
2013-06-20 08:08:00,54.5,51.9,29.53,NW,305,0.0,0.0,91,0.04,,---,0.20,VWS V13.01,2013-06-20 15:08:00,
2013-06-20 08:11:00,54.7,52.1,29.53,SW,235,0.0,0.0,91,0.04,,---,0.20,VWS V13.01,2013-06-20 15:11:00,
2013-06-20 08:12:00,54.7,52.1,29.53,SW,235,0.0,0.0,91,0.04,,---,0.20,VWS V13.01,2013-06-20 15:12:00,
2013-06-20 08:13:00,54.9,52.3,29.53,WSW,251,0.0,0.0,91,0.04,,---,0.20,VWS V13.01,2013-06-20 15:13:00,
2013-06-20 08:16:00,54.9,52.3,29.53,SW,223,4.0,4.0,91,0.04,,---,0.20,VWS V13.01,2013-06-20 15:16:00,
2013-06-20 08:17:00,54.9,52.3,29.53,SW,223,4.0,4.0,91,0.04,,---,0.20,VWS V13.01,2013-06-20 15:17:00,
2013-06-20 08:18:00,55.0,52.5,29.53,SSE,164,0.0,0.0,91,0.04,,---,0.20,VWS V13.01,2013-06-20 15:18:00,
2013-06-20 08:21:00,55.0,52.5,29.53,WSW,245,0.0,0.0,91,0.04,,---,0.20,VWS V13.01,2013-06-20 15:21:00,
2013-06-20 08:22:00,55.0,52.5,29.53,SW,226,3.1,3.1,91,0.04,,---,0.20,VWS V13.01,2013-06-20 15:22:00,
2013-06-20 08:24:00,55.0,52.5,29.53,SW,226,3.1,3.1,91,0.04,,---,0.20,VWS V13.01,2013-06-20 15:24:00,
2013-06-20 08:26:00,54.9,52.3,29.53,WNW,290,2.7,3.1,91,0.04,,---,0.20,VWS V13.01,2013-06-20 15:26:00,
2013-06-20 08:27:00,54.9,52.3,29.53,WNW,290,2.7,2.7,91,0.04,,---,0.20,VWS V13.01,2013-06-20 15:27:00,
2013-06-20 08:29:00,54.9,52.3,29.53,WNW,290,2.7,2.7,91,0.04,,---,0.20,VWS V13.01,2013-06-20 15:29:00,
2013-06-20 08:31:00,55.0,52.5,29.53,SW,221,0.0,0.0,91,0.04,,---,0.20,VWS V13.01,2013-06-20 15:31:00,
2013-06-20 08:32:00,55.0,52.5,29.53,WSW,244,4.0,4.0,91,0.04,,---,0.20,VWS V13.01,2013-06-20 15:32:00,
2013-06-20 08:33:00,55.0,52.5,29.53,WSW,254,3.6,4.0,91,0.04,,---,0.20,VWS V13.01,2013-06-20 15:33:00,
2013-06-20 08:34:00,55.0,52.5,29.53,WSW,254,3.6,3.6,91,0.04,,---,0.20,VWS V13.01,2013-06-20 15:34:00,
2013-06-20 08:37:00,55.0,52.5,29.53,NW,317,2.7,2.7,91,0.04,,---,0.20,VWS V13.01,2013-06-20 15:37:00,
2013-06-20 08:38:00,55.0,52.5,29.53,NW,317,2.7,2.7,91,0.04,,---,0.20,VWS V13.01,2013-06-20 15:38:00,
2013-06-20 08:39:00,55.0,52.5,29.53,NW,317,2.7,2.7,91,0.04,,---,0.20,VWS V13.01,2013-06-20 15:39:00,
2013-06-20 08:42:00,55.0,52.5,29.53,West,264,0.0,0.0,91,0.04,,---,0.20,VWS V13.01,2013-06-20 15:42:00,
2013-06-20 08:43:00,55.2,52.6,29.53,West,264,0.0,0.0,91,0.04,,---,0.20,VWS V13.01,2013-06-20 15:43:00,
2013-06-20 08:44:00,55.2,52.6,29.53,South,175,0.0,0.0,91,0.04,,---,0.20,VWS V13.01,2013-06-20 15:44:00,
2013-06-20 08:47:00,55.4,52.8,29.53,SW,229,0.0,0.0,91,0.00,,---,0.20,VWS V13.01,2013-06-20 15:47:00,
2013-06-20 08:48:00,55.4,52.8,29.53,SW,229,0.0,0.0,91,0.00,,---,0.20,VWS V13.01,2013-06-20 15:48:00,
2013-06-20 08:49:00,55.4,52.8,29.53,South,171,0.0,0.0,91,0.00,,---,0.20,VWS V13.01,2013-06-20 15:49:00,
2013-06-20 08:52:00,55.6,53.0,29.50,South,171,0.0,0.0,91,0.00,,---,0.20,VWS V13.01,2013-06-20 15:52:00,
2013-06-20 08:53:00,55.6,53.0,29.50,WSW,253,0.0,0.0,91,0.00,,---,0.20,VWS V13.01,2013-06-20 15:53:00,
2013-06-20 08:55:00,55.4,52.8,29.50,SW,226,2.7,2.7,91,0.00,,---,0.20,VWS V13.01,2013-06-20 15:55:00,
2013-06-20 08:57:00,55.6,53.0,29.50,SW,226,2.7,2.7,91,0.00,,---,0.20,VWS V13.01,2013-06-20 15:57:00,
2013-06-20 08:58:00,55.6,53.0,29.50,SW,227,2.7,2.7,91,0.00,,---,0.20,VWS V13.01,2013-06-20 15:58:00,
2013-06-20 08:59:00,55.6,53.0,29.50,SW,227,2.7,2.7,91,0.00,,---,0.20,VWS V13.01,2013-06-20 15:59:00,
2013-06-20 09:00:00,55.6,53.0,29.50,West,270,4.0,4.0,91,0.00,,---,0.20,VWS V13.01,2013-06-20 16:00:00,
2013-06-20 09:02:00,55.4,52.8,29.50,WSW,247,2.7,2.7,91,0.00,,---,0.20,VWS V13.01,2013-06-20 16:02:00,
2013-06-20 09:04:00,55.4,52.8,29.50,WSW,247,2.7,2.7,91,0.00,,---,0.20,VWS V13.01,2013-06-20 16:04:00,
2013-06-20 09:05:00,55.4,52.8,29.53,WSW,247,2.7,2.7,91,0.00,,---,0.20,VWS V13.01,2013-06-20 16:05:00,
2013-06-20 09:07:00,55.6,53.0,29.53,WSW,245,0.0,0.0,91,0.00,,---,0.20,VWS V13.01,2013-06-20 16:07:00,
2013-06-20 09:08:00,55.6,53.0,29.53,West,274,2.7,2.7,91,0.00,,---,0.20,VWS V13.01,2013-06-20 16:08:00,
2013-06-20 09:09:00,55.6,53.0,29.53,West,274,2.7,2.7,91,0.00,,---,0.20,VWS V13.01,2013-06-20 16:09:00,
2013-06-20 09:10:00,55.6,53.0,29.53,West,274,2.7,2.7,91,0.00,,---,0.20,VWS V13.01,2013-06-20 16:10:00,
2013-06-20 09:12:00,55.6,53.0,29.53,SW,229,3.1,3.1,91,0.00,,---,0.20,VWS V13.01,2013-06-20 16:12:00,
2013-06-20 09:13:00,55.6,53.0,29.53,WSW,239,3.1,3.1,91,0.00,,---,0.20,VWS V13.01,2013-06-20 16:13:00,
2013-06-20 09:14:00,55.6,53.0,29.53,WSW,239,3.1,3.1,91,0.00,,---,0.20,VWS V13.01,2013-06-20 16:14:00,
2013-06-20 09:15:00,55.6,53.0,29.53,West,275,2.2,3.1,91,0.00,,---,0.20,VWS V13.01,2013-06-20 16:15:00,
2013-06-20 09:17:00,55.6,53.0,29.53,WSW,258,2.7,2.7,91,0.00,,---,0.20,VWS V13.01,2013-06-20 16:17:00,
2013-06-20 09:18:00,55.6,53.0,29.53,WSW,258,2.7,2.7,91,0.00,,---,0.20,VWS V13.01,2013-06-20 16:18:00,
2013-06-20 09:19:00,55.6,53.0,29.53,West,260,2.2,2.2,91,0.00,,---,0.20,VWS V13.01,2013-06-20 16:19:00,
2013-06-20 09:21:00,55.6,53.0,29.53,SSW,208,3.1,3.1,91,0.00,,---,0.20,VWS V13.01,2013-06-20 16:21:00,
2013-06-20 09:22:00,55.6,53.0,29.53,SSW,208,3.1,3.1,91,0.00,,---,0.20,VWS V13.01,2013-06-20 16:22:00,
2013-06-20 09:23:00,55.6,53.0,29.53,SSW,208,3.1,3.1,91,0.00,,---,0.20,VWS V13.01,2013-06-20 16:23:00,
2013-06-20 09:24:00,55.6,53.0,29.53,WSW,241,2.7,3.1,91,0.00,,---,0.20,VWS V13.01,2013-06-20 16:24:00,
2013-06-20 09:25:00,55.6,53.0,29.53,WSW,241,2.7,3.1,91,0.00,,---,0.20,VWS V13.01,2013-06-20 16:25:00,
2013-06-20 09:26:00,55.6,53.0,29.53,SW,225,2.7,2.7,91,0.00,,---,0.20,VWS V13.01,2013-06-20 16:26:00,
2013-06-20 09:27:00,55.6,53.0,29.53,SSW,210,3.1,3.1,91,0.00,,---,0.20,VWS V13.01,2013-06-20 16:27:00,
2013-06-20 09:28:00,55.8,53.2,29.53,WNW,303,2.7,3.1,91,0.00,,---,0.20,VWS V13.01,2013-06-20 16:28:00,
2013-06-20 09:29:00,55.8,53.2,29.53,WNW,303,2.7,2.7,91,0.00,,---,0.20,VWS V13.01,2013-06-20 16:29:00,
2013-06-20 09:30:00,55.8,53.2,29.53,WNW,303,2.7,2.7,91,0.00,,---,0.20,VWS V13.01,2013-06-20 16:30:00,
2013-06-20 09:31:00,55.8,53.2,29.53,WNW,303,2.7,2.7,91,0.00,,---,0.20,VWS V13.01,2013-06-20 16:31:00,
2013-06-20 09:33:00,55.8,53.2,29.53,West,263,3.1,3.1,91,0.00,,---,0.20,VWS V13.01,2013-06-20 16:33:00,
2013-06-20 09:34:00,55.8,53.2,29.53,West,263,3.1,3.1,91,0.00,,---,0.20,VWS V13.01,2013-06-20 16:34:00,
2013-06-20 09:35:00,55.8,53.2,29.53,West,263,3.1,3.1,91,0.00,,---,0.20,VWS V13.01,2013-06-20 16:35:00,
2013-06-20 09:36:00,55.8,53.2,29.53,West,263,3.1,3.1,91,0.00,,---,0.20,VWS V13.01,2013-06-20 16:36:00,
2013-06-20 09:38:00,55.8,53.5,29.53,SW,234,3.1,3.1,92,0.00,,---,0.20,VWS V13.01,2013-06-20 16:38:00,
2013-06-20 09:39:00,55.8,53.5,29.53,West,275,2.7,3.6,92,0.00,,---,0.20,VWS V13.01,2013-06-20 16:39:00,
2013-06-20 09:40:00,55.8,53.5,29.53,West,275,2.7,2.7,92,0.00,,---,0.20,VWS V13.01,2013-06-20 16:40:00,
2013-06-20 09:41:00,55.8,53.5,29.53,SW,227,2.7,2.7,92,0.00,,---,0.20,VWS V13.01,2013-06-20 16:41:00,
2013-06-20 09:43:00,55.8,53.5,29.53,SW,228,5.4,5.4,92,0.00,,---,0.20,VWS V13.01,2013-06-20 16:43:00,
2013-06-20 09:44:00,55.8,53.5,29.53,SW,228,5.4,5.4,92,0.00,,---,0.20,VWS V13.01,2013-06-20 16:44:00,
2013-06-20 09:45:00,55.8,53.5,29.53,SW,228,5.4,5.4,92,0.00,,---,0.20,VWS V13.01,2013-06-20 16:45:00,
2013-06-20 09:46:00,55.8,53.5,29.53,West,279,3.6,5.4,92,0.00,,---,0.20,VWS V13.01,2013-06-20 16:46:00,
2013-06-20 09:48:00,55.8,53.5,29.53,West,279,3.6,3.6,92,0.00,,---,0.20,VWS V13.01,2013-06-20 16:48:00,
2013-06-20 09:49:00,55.8,53.5,29.53,West,279,3.6,3.6,92,0.00,,---,0.20,VWS V13.01,2013-06-20 16:49:00,
2013-06-20 09:50:00,55.9,53.7,29.53,West,268,2.7,2.7,92,0.00,,---,0.20,VWS V13.01,2013-06-20 16:50:00,
2013-06-20 09:51:00,55.9,53.7,29.53,West,261,3.6,3.6,92,0.00,,---,0.20,VWS V13.01,2013-06-20 16:51:00,
2013-06-20 09:53:00,55.9,53.7,29.53,SE,143,0.0,0.0,92,0.00,,---,0.20,VWS V13.01,2013-06-20 16:53:00,
2013-06-20 09:54:00,55.9,53.7,29.53,West,274,3.6,3.6,92,0.00,,---,0.20,VWS V13.01,2013-06-20 16:54:00,
2013-06-20 09:55:00,55.9,53.7,29.53,NNW,341,2.7,3.6,92,0.00,,---,0.20,VWS V13.01,2013-06-20 16:55:00,
2013-06-20 09:56:00,55.9,53.7,29.53,NNW,341,2.7,3.6,92,0.00,,---,0.20,VWS V13.01,2013-06-20 16:56:00,
2013-06-20 09:58:00,55.9,53.7,29.53,NNW,341,2.7,2.7,92,0.00,,---,0.20,VWS V13.01,2013-06-20 16:58:00,
2013-06-20 09:59:00,55.9,53.7,29.53,NNW,341,2.7,2.7,92,0.00,,---,0.20,VWS V13.01,2013-06-20 16:59:00,
2013-06-20 10:00:00,55.9,53.7,29.53,West,272,0.0,0.0,92,0.00,,---,0.20,VWS V13.01,2013-06-20 17:00:00,
2013-06-20 10:01:00,55.9,53.7,29.53,NW,307,0.0,0.0,92,0.00,,---,0.20,VWS V13.01,2013-06-20 17:01:00,
2013-06-20 10:02:00,55.9,53.7,29.53,NW,307,0.0,0.0,92,0.00,,---,0.20,VWS V13.01,2013-06-20 17:02:00,
2013-06-20 10:03:00,55.9,53.7,29.53,NW,307,0.0,0.0,92,0.00,,---,0.20,VWS V13.01,2013-06-20 17:03:00,
2013-06-20 10:04:00,55.9,53.7,29.53,WSW,251,2.7,2.7,92,0.00,,---,0.20,VWS V13.01,2013-06-20 17:04:00,
2013-06-20 10:05:00,55.9,53.7,29.53,WSW,251,2.7,2.7,92,0.00,,---,0.20,VWS V13.01,2013-06-20 17:05:00,
2013-06-20 10:06:00,55.9,53.7,29.53,WSW,251,0.0,0.0,92,0.00,,---,0.20,VWS V13.01,2013-06-20 17:06:00,
2013-06-20 10:07:00,55.9,53.7,29.53,WSW,251,0.0,0.0,92,0.00,,---,0.20,VWS V13.01,2013-06-20 17:07:00,
2013-06-20 10:08:00,56.1,53.8,29.53,WSW,253,3.1,3.1,92,0.00,,---,0.20,VWS V13.01,2013-06-20 17:08:00,
2013-06-20 10:09:00,56.1,53.8,29.53,WSW,253,3.1,3.1,92,0.00,,---,0.20,VWS V13.01,2013-06-20 17:09:00,
2013-06-20 10:10:00,56.1,53.8,29.53,WSW,253,3.1,3.1,92,0.00,,---,0.20,VWS V13.01,2013-06-20 17:10:00,
2013-06-20 10:11:00,56.1,53.8,29.53,WSW,253,3.1,3.1,92,0.00,,---,0.20,VWS V13.01,2013-06-20 17:11:00,
2013-06-20 10:12:00,56.1,53.8,29.53,WSW,241,2.7,2.7,92,0.00,,---,0.20,VWS V13.01,2013-06-20 17:12:00,
2013-06-20 10:13:00,56.1,53.8,29.53,SW,228,0.0,3.1,92,0.00,,---,0.20,VWS V13.01,2013-06-20 17:13:00,
2013-06-20 10:14:00,56.1,53.8,29.53,SW,228,0.0,0.0,92,0.00,,---,0.20,VWS V13.01,2013-06-20 17:14:00,
2013-06-20 10:15:00,56.1,53.8,29.53,SW,228,0.0,0.0,92,0.00,,---,0.20,VWS V13.01,2013-06-20 17:15:00,
2013-06-20 10:16:00,56.1,53.8,29.53,SW,228,0.0,0.0,92,0.00,,---,0.20,VWS V13.01,2013-06-20 17:16:00,
2013-06-20 10:17:00,56.3,54.0,29.53,SW,228,0.0,0.0,92,0.00,,---,0.20,VWS V13.01,2013-06-20 17:17:00,
2013-06-20 10:19:00,56.3,54.0,29.53,SW,228,0.0,0.0,92,0.00,,---,0.20,VWS V13.01,2013-06-20 17:19:00,
2013-06-20 10:20:00,56.5,54.2,29.53,SW,228,0.0,0.0,92,0.00,,---,0.20,VWS V13.01,2013-06-20 17:20:00,
2013-06-20 10:21:00,56.5,54.2,29.53,SW,228,0.0,0.0,92,0.00,,---,0.20,VWS V13.01,2013-06-20 17:21:00,
2013-06-20 10:22:00,56.5,54.2,29.53,SW,228,0.0,0.0,92,0.00,,---,0.20,VWS V13.01,2013-06-20 17:22:00,
2013-06-20 10:24:00,56.7,54.4,29.53,SW,228,0.0,0.0,92,0.04,,---,0.24,VWS V13.01,2013-06-20 17:24:00,
2013-06-20 10:25:00,56.7,54.4,29.53,South,179,0.0,0.0,92,0.04,,---,0.24,VWS V13.01,2013-06-20 17:25:00,
2013-06-20 10:26:00,56.7,54.4,29.53,ESE,123,0.0,0.0,92,0.04,,---,0.24,VWS V13.01,2013-06-20 17:26:00,
2013-06-20 10:27:00,56.7,54.4,29.53,ESE,123,0.0,0.0,92,0.04,,---,0.24,VWS V13.01,2013-06-20 17:27:00,
2013-06-20 10:29:00,56.7,54.4,29.53,ESE,123,0.0,0.0,92,0.04,,---,0.24,VWS V13.01,2013-06-20 17:29:00,
2013-06-20 10:30:00,56.7,54.4,29.53,ESE,123,0.0,0.0,92,0.04,,---,0.24,VWS V13.01,2013-06-20 17:30:00,
2013-06-20 10:31:00,56.8,54.5,29.53,West,274,0.0,0.0,92,0.04,,---,0.24,VWS V13.01,2013-06-20 17:31:00,
2013-06-20 10:32:00,56.8,54.5,29.53,West,267,0.0,0.0,92,0.04,,---,0.24,VWS V13.01,2013-06-20 17:32:00,
2013-06-20 10:34:00,56.8,54.5,29.53,West,267,0.0,0.0,92,0.04,,---,0.24,VWS V13.01,2013-06-20 17:34:00,
2013-06-20 10:35:00,56.8,54.5,29.53,West,267,0.0,0.0,92,0.04,,---,0.24,VWS V13.01,2013-06-20 17:35:00,
2013-06-20 10:36:00,57.0,54.7,29.53,West,267,0.0,0.0,92,0.04,,---,0.24,VWS V13.01,2013-06-20 17:36:00,
2013-06-20 10:37:00,57.0,54.7,29.53,West,267,0.0,0.0,92,0.04,,---,0.24,VWS V13.01,2013-06-20 17:37:00,
2013-06-20 10:39:00,57.2,54.6,29.53,West,267,0.0,0.0,91,0.04,,---,0.24,VWS V13.01,2013-06-20 17:39:00,
2013-06-20 10:40:00,57.2,54.6,29.53,West,266,0.0,0.0,91,0.04,,---,0.24,VWS V13.01,2013-06-20 17:40:00,
2013-06-20 10:41:00,57.2,54.6,29.53,West,266,0.0,0.0,91,0.04,,---,0.24,VWS V13.01,2013-06-20 17:41:00,
2013-06-20 10:42:00,57.2,54.6,29.53,West,266,0.0,0.0,91,0.04,,---,0.24,VWS V13.01,2013-06-20 17:42:00,
2013-06-20 10:44:00,57.2,54.6,29.53,SSE,168,0.0,0.0,91,0.04,,---,0.24,VWS V13.01,2013-06-20 17:44:00,
2013-06-20 10:45:00,57.4,54.8,29.53,SSE,168,0.0,0.0,91,0.04,,---,0.24,VWS V13.01,2013-06-20 17:45:00,
2013-06-20 10:46:00,57.4,54.8,29.53,SSE,168,0.0,0.0,91,0.04,,---,0.24,VWS V13.01,2013-06-20 17:46:00,
2013-06-20 10:47:00,57.4,54.8,29.53,SSE,168,0.0,0.0,91,0.04,,---,0.24,VWS V13.01,2013-06-20 17:47:00,
2013-06-20 10:48:00,57.4,54.8,29.53,SSE,168,0.0,0.0,91,0.04,,---,0.24,VWS V13.01,2013-06-20 17:48:00,
2013-06-20 10:49:00,57.4,54.8,29.53,SSE,168,0.0,0.0,91,0.04,,---,0.24,VWS V13.01,2013-06-20 17:49:00,
2013-06-20 10:50:00,57.6,55.0,29.53,SSE,168,0.0,0.0,91,0.04,,---,0.24,VWS V13.01,2013-06-20 17:50:00,
2013-06-20 10:51:00,57.6,55.0,29.53,SSE,168,0.0,0.0,91,0.04,,---,0.24,VWS V13.01,2013-06-20 17:51:00,
2013-06-20 10:52:00,57.6,55.0,29.53,SSE,168,0.0,0.0,91,0.04,,---,0.24,VWS V13.01,2013-06-20 17:52:00,
2013-06-20 10:53:00,57.6,54.7,29.53,SE,140,0.0,0.0,90,0.04,,---,0.24,VWS V13.01,2013-06-20 17:53:00,
2013-06-20 10:54:00,57.7,54.8,29.53,SE,140,0.0,0.0,90,0.04,,---,0.24,VWS V13.01,2013-06-20 17:54:00,
2013-06-20 10:56:00,57.6,54.7,29.53,East,84,0.0,0.0,90,0.04,,---,0.24,VWS V13.01,2013-06-20 17:56:00,
2013-06-20 10:57:00,57.6,54.7,29.53,WSW,240,0.0,0.0,90,0.04,,---,0.24,VWS V13.01,2013-06-20 17:57:00,
2013-06-20 10:58:00,57.7,54.8,29.53,WSW,240,0.0,0.0,90,0.04,,---,0.24,VWS V13.01,2013-06-20 17:58:00,
2013-06-20 10:59:00,57.7,54.8,29.53,NW,308,0.0,0.0,90,0.04,,---,0.24,VWS V13.01,2013-06-20 17:59:00,
2013-06-20 11:01:00,57.9,55.0,29.53,NW,308,0.0,0.0,90,0.04,,---,0.24,VWS V13.01,2013-06-20 18:01:00,
2013-06-20 11:02:00,57.9,55.0,29.53,SW,236,0.0,0.0,90,0.04,,---,0.24,VWS V13.01,2013-06-20 18:02:00,
2013-06-20 11:03:00,57.9,55.0,29.53,SW,236,0.0,0.0,90,0.04,,---,0.24,VWS V13.01,2013-06-20 18:03:00,
2013-06-20 11:04:00,57.9,55.0,29.53,SW,236,0.0,0.0,90,0.04,,---,0.24,VWS V13.01,2013-06-20 18:04:00,
2013-06-20 11:06:00,57.9,55.0,29.53,SW,236,0.0,0.0,90,0.04,,---,0.24,VWS V13.01,2013-06-20 18:06:00,
2013-06-20 11:07:00,57.9,55.0,29.53,SW,236,0.0,0.0,90,0.04,,---,0.24,VWS V13.01,2013-06-20 18:07:00,
2013-06-20 11:09:00,57.9,55.0,29.53,SW,236,0.0,0.0,90,0.04,,---,0.24,VWS V13.01,2013-06-20 18:09:00,
2013-06-20 11:11:00,58.1,55.2,29.53,SW,236,0.0,0.0,90,0.04,,---,0.24,VWS V13.01,2013-06-20 18:11:00,
2013-06-20 11:12:00,58.1,55.2,29.53,SW,236,0.0,0.0,90,0.04,,---,0.24,VWS V13.01,2013-06-20 18:12:00,
2013-06-20 11:14:00,58.1,55.2,29.53,WNW,287,3.1,3.1,90,0.04,,---,0.24,VWS V13.01,2013-06-20 18:14:00,
2013-06-20 11:15:00,58.1,55.2,29.53,WSW,249,0.0,3.1,90,0.04,,---,0.24,VWS V13.01,2013-06-20 18:15:00,
2013-06-20 11:16:00,58.1,55.2,29.53,WSW,249,0.0,0.0,90,0.04,,---,0.24,VWS V13.01,2013-06-20 18:16:00,
2013-06-20 11:17:00,58.1,55.2,29.53,SW,218,0.0,0.0,90,0.04,,---,0.24,VWS V13.01,2013-06-20 18:17:00,
2013-06-20 11:19:00,58.1,55.2,29.53,SW,218,0.0,0.0,90,0.04,,---,0.24,VWS V13.01,2013-06-20 18:19:00,
2013-06-20 11:20:00,58.1,55.2,29.53,SW,218,0.0,0.0,90,0.04,,---,0.24,VWS V13.01,2013-06-20 18:20:00,
2013-06-20 11:22:00,58.1,55.2,29.53,SW,218,0.0,0.0,90,0.04,,---,0.24,VWS V13.01,2013-06-20 18:22:00,
2013-06-20 11:24:00,58.1,55.2,29.53,SW,224,0.0,0.0,90,0.04,,---,0.24,VWS V13.01,2013-06-20 18:24:00,
2013-06-20 11:25:00,58.1,55.2,29.53,SW,224,0.0,0.0,90,0.00,,---,0.24,VWS V13.01,2013-06-20 18:25:00,
2013-06-20 11:27:00,58.1,55.2,29.53,WSW,237,0.0,0.0,90,0.00,,---,0.24,VWS V13.01,2013-06-20 18:27:00,
2013-06-20 11:29:00,58.1,55.2,29.53,West,275,0.0,0.0,90,0.00,,---,0.24,VWS V13.01,2013-06-20 18:29:00,
2013-06-20 11:30:00,58.1,55.2,29.53,WNW,282,0.0,0.0,90,0.00,,---,0.24,VWS V13.01,2013-06-20 18:30:00,
2013-06-20 11:32:00,58.1,55.2,29.53,WNW,282,0.0,0.0,90,0.00,,---,0.24,VWS V13.01,2013-06-20 18:32:00,
2013-06-20 11:33:00,58.1,55.2,29.53,WSW,241,0.0,0.0,90,0.00,,---,0.24,VWS V13.01,2013-06-20 18:33:00,
2013-06-20 11:34:00,58.1,54.9,29.53,WSW,241,0.0,0.0,89,0.00,,---,0.24,VWS V13.01,2013-06-20 18:34:00,
2013-06-20 11:35:00,58.1,54.9,29.53,WSW,241,0.0,0.0,89,0.00,,---,0.24,VWS V13.01,2013-06-20 18:35:00,
2013-06-20 11:37:00,58.1,54.9,29.53,WNW,293,0.0,0.0,89,0.00,,---,0.24,VWS V13.01,2013-06-20 18:37:00,
2013-06-20 11:38:00,58.1,54.9,29.53,WNW,293,0.0,0.0,89,0.00,,---,0.24,VWS V13.01,2013-06-20 18:38:00,
2013-06-20 11:39:00,58.1,54.9,29.53,WNW,293,0.0,0.0,89,0.00,,---,0.24,VWS V13.01,2013-06-20 18:39:00,
2013-06-20 11:41:00,58.3,55.1,29.53,WNW,293,0.0,0.0,89,0.00,,---,0.24,VWS V13.01,2013-06-20 18:41:00,
2013-06-20 11:42:00,58.1,55.2,29.53,WSW,256,0.0,0.0,90,0.00,,---,0.24,VWS V13.01,2013-06-20 18:42:00,
2013-06-20 11:43:00,58.1,55.2,29.53,WSW,256,0.0,0.0,90,0.00,,---,0.24,VWS V13.01,2013-06-20 18:43:00,
2013-06-20 11:44:00,58.1,55.2,29.53,WSW,256,0.0,0.0,90,0.00,,---,0.24,VWS V13.01,2013-06-20 18:44:00,
2013-06-20 11:46:00,58.5,55.5,29.53,WSW,256,0.0,0.0,90,0.00,,---,0.24,VWS V13.01,2013-06-20 18:46:00,
2013-06-20 11:47:00,58.6,55.4,29.53,WSW,256,0.0,0.0,89,0.00,,---,0.24,VWS V13.01,2013-06-20 18:47:00,
2013-06-20 11:48:00,58.6,55.4,29.53,WSW,256,0.0,0.0,89,0.00,,---,0.24,VWS V13.01,2013-06-20 18:48:00,
2013-06-20 11:49:00,58.6,55.4,29.50,WSW,256,0.0,0.0,89,0.00,,---,0.24,VWS V13.01,2013-06-20 18:49:00,
2013-06-20 11:51:00,58.5,55.2,29.50,SW,231,3.6,3.6,89,0.00,,---,0.24,VWS V13.01,2013-06-20 18:51:00,
2013-06-20 11:53:00,58.5,55.2,29.50,SSW,204,0.0,0.0,89,0.00,,---,0.24,VWS V13.01,2013-06-20 18:53:00,
2013-06-20 11:54:00,58.5,55.2,29.50,SSW,204,0.0,0.0,89,0.00,,---,0.24,VWS V13.01,2013-06-20 18:54:00,
2013-06-20 11:56:00,58.5,55.2,29.50,WNW,284,0.0,0.0,89,0.00,,---,0.24,VWS V13.01,2013-06-20 18:56:00,
2013-06-20 11:58:00,58.5,55.2,29.50,WNW,284,0.0,0.0,89,0.00,,---,0.24,VWS V13.01,2013-06-20 18:58:00,
2013-06-20 11:59:00,58.5,55.2,29.50,West,273,0.0,0.0,89,0.00,,---,0.24,VWS V13.01,2013-06-20 18:59:00,
2013-06-20 12:01:00,58.6,55.4,29.50,SSW,200,0.0,0.0,89,0.00,,---,0.24,VWS V13.01,2013-06-20 19:01:00,
2013-06-20 12:03:00,58.6,55.4,29.50,SSW,200,0.0,0.0,89,0.00,,---,0.24,VWS V13.01,2013-06-20 19:03:00,
2013-06-20 12:05:00,58.6,55.1,29.50,SE,133,0.0,0.0,88,0.00,,---,0.24,VWS V13.01,2013-06-20 19:05:00,
2013-06-20 12:06:00,58.8,55.3,29.50,NW,313,0.0,0.0,88,0.00,,---,0.24,VWS V13.01,2013-06-20 19:06:00,
2013-06-20 12:08:00,58.8,55.3,29.50,NW,313,0.0,0.0,88,0.00,,---,0.24,VWS V13.01,2013-06-20 19:08:00,
2013-06-20 12:09:00,58.6,55.1,29.50,West,274,6.3,6.3,88,0.00,,---,0.24,VWS V13.01,2013-06-20 19:09:00,
2013-06-20 12:10:00,58.6,55.1,29.50,West,274,6.3,6.3,88,0.00,,---,0.24,VWS V13.01,2013-06-20 19:10:00,
2013-06-20 12:11:00,58.6,55.1,29.53,West,274,6.3,6.3,88,0.00,,---,0.24,VWS V13.01,2013-06-20 19:11:00,
2013-06-20 12:13:00,58.5,54.6,29.53,NNW,329,0.0,0.0,87,0.00,,---,0.24,VWS V13.01,2013-06-20 19:13:00,
2013-06-20 12:14:00,58.5,54.6,29.53,NNW,329,0.0,0.0,87,0.00,,---,0.24,VWS V13.01,2013-06-20 19:14:00,
2013-06-20 12:15:00,58.5,54.6,29.53,NNW,329,0.0,0.0,87,0.00,,---,0.24,VWS V13.01,2013-06-20 19:15:00,
2013-06-20 12:17:00,58.5,54.6,29.53,WNW,289,5.8,5.8,87,0.00,,---,0.24,VWS V13.01,2013-06-20 19:17:00,
2013-06-20 12:18:00,58.6,54.8,29.53,WNW,289,5.8,5.8,87,0.00,,---,0.24,VWS V13.01,2013-06-20 19:18:00,
2013-06-20 12:19:00,58.6,54.8,29.53,West,281,0.0,0.0,87,0.00,,---,0.24,VWS V13.01,2013-06-20 19:19:00,
2013-06-20 12:20:00,58.8,55.0,29.53,West,281,0.0,0.0,87,0.00,,---,0.24,VWS V13.01,2013-06-20 19:20:00,
2013-06-20 12:22:00,58.8,54.7,29.53,West,269,2.7,2.7,86,0.00,,---,0.24,VWS V13.01,2013-06-20 19:22:00,
2013-06-20 12:23:00,58.8,54.7,29.53,SW,235,3.1,3.1,86,0.00,,---,0.24,VWS V13.01,2013-06-20 19:23:00,
2013-06-20 12:24:00,58.8,54.7,29.53,SW,235,3.1,3.1,86,0.00,,---,0.24,VWS V13.01,2013-06-20 19:24:00,
2013-06-20 12:25:00,58.6,54.5,29.53,SSW,200,3.6,3.6,86,0.00,,---,0.24,VWS V13.01,2013-06-20 19:25:00,
2013-06-20 12:27:00,58.6,54.5,29.53,SW,224,4.0,4.0,86,0.00,,---,0.24,VWS V13.01,2013-06-20 19:27:00,
2013-06-20 12:29:00,58.8,54.7,29.53,SW,224,4.0,4.0,86,0.00,,---,0.24,VWS V13.01,2013-06-20 19:29:00,
2013-06-20 12:30:00,58.8,54.7,29.53,SW,217,2.7,4.0,86,0.00,,---,0.24,VWS V13.01,2013-06-20 19:30:00,
2013-06-20 12:32:00,58.8,54.7,29.53,SSW,208,2.7,2.7,86,0.00,,---,0.24,VWS V13.01,2013-06-20 19:32:00,
2013-06-20 12:34:00,58.8,54.3,29.53,WSW,255,3.6,3.6,85,0.00,,---,0.24,VWS V13.01,2013-06-20 19:34:00,
2013-06-20 12:35:00,58.8,54.3,29.53,SSW,192,3.1,3.1,85,0.00,,---,0.24,VWS V13.01,2013-06-20 19:35:00,
2013-06-20 12:37:00,59.0,54.5,29.53,WSW,239,2.2,2.2,85,0.00,,---,0.24,VWS V13.01,2013-06-20 19:37:00,
2013-06-20 12:39:00,59.0,54.5,29.53,WSW,239,0.0,2.2,85,0.00,,---,0.24,VWS V13.01,2013-06-20 19:39:00,
2013-06-20 12:40:00,59.2,54.7,29.53,WSW,239,0.0,0.0,85,0.00,,---,0.24,VWS V13.01,2013-06-20 19:40:00,
2013-06-20 12:42:00,59.2,54.7,29.53,WSW,239,0.0,0.0,85,0.00,,---,0.24,VWS V13.01,2013-06-20 19:42:00,
2013-06-20 12:44:00,59.2,54.7,29.53,SSW,209,2.2,2.2,85,0.00,,---,0.24,VWS V13.01,2013-06-20 19:44:00,
2013-06-20 12:45:00,59.2,54.7,29.53,SE,131,2.2,2.2,85,0.00,,---,0.24,VWS V13.01,2013-06-20 19:45:00,
2013-06-20 12:46:00,59.2,54.7,29.53,WSW,240,4.0,4.0,85,0.00,,---,0.24,VWS V13.01,2013-06-20 19:46:00,
2013-06-20 12:48:00,59.2,54.7,29.53,WSW,240,4.0,4.0,85,0.00,,---,0.24,VWS V13.01,2013-06-20 19:48:00,
2013-06-20 12:49:00,59.2,54.7,29.53,SW,215,2.7,2.7,85,0.00,,---,0.24,VWS V13.01,2013-06-20 19:49:00,
2013-06-20 12:50:00,59.2,54.4,29.53,SW,215,2.7,2.7,84,0.00,,---,0.24,VWS V13.01,2013-06-20 19:50:00,
2013-06-20 12:51:00,59.2,54.4,29.53,SW,215,2.7,2.7,84,0.00,,---,0.24,VWS V13.01,2013-06-20 19:51:00,
2013-06-20 12:53:00,59.0,54.2,29.53,SW,232,4.0,4.0,84,0.00,,---,0.24,VWS V13.01,2013-06-20 19:53:00,
2013-06-20 12:54:00,59.0,54.2,29.53,SW,232,4.0,4.0,84,0.00,,---,0.24,VWS V13.01,2013-06-20 19:54:00,
2013-06-20 12:55:00,59.2,54.4,29.53,ESE,107,0.0,4.0,84,0.00,,---,0.24,VWS V13.01,2013-06-20 19:55:00,
2013-06-20 12:56:00,59.2,54.7,29.53,WNW,300,4.0,4.0,85,0.00,,---,0.24,VWS V13.01,2013-06-20 19:56:00,
2013-06-20 12:58:00,59.2,54.7,29.53,NW,315,2.2,4.0,85,0.00,,---,0.24,VWS V13.01,2013-06-20 19:58:00,
2013-06-20 12:59:00,59.4,54.9,29.53,WSW,250,5.8,5.8,85,0.00,,---,0.24,VWS V13.01,2013-06-20 19:59:00,
2013-06-20 13:01:00,59.4,54.5,29.53,WSW,250,5.8,5.8,84,0.00,,---,0.24,VWS V13.01,2013-06-20 20:01:00,
2013-06-20 13:02:00,59.4,54.5,29.53,WSW,237,4.0,4.0,84,0.00,,---,0.24,VWS V13.01,2013-06-20 20:02:00,
2013-06-20 13:03:00,59.4,54.5,29.53,WSW,237,4.0,4.0,84,0.00,,---,0.24,VWS V13.01,2013-06-20 20:03:00,
2013-06-20 13:04:00,59.4,54.5,29.53,WSW,237,4.0,4.0,84,0.00,,---,0.24,VWS V13.01,2013-06-20 20:04:00,
2013-06-20 13:06:00,59.4,54.5,29.53,ESE,114,0.0,0.0,84,0.00,,---,0.24,VWS V13.01,2013-06-20 20:06:00,
2013-06-20 13:07:00,59.4,54.9,29.53,ESE,122,0.0,0.0,85,0.00,,---,0.24,VWS V13.01,2013-06-20 20:07:00,
2013-06-20 13:08:00,59.4,54.9,29.53,ESE,122,0.0,0.0,85,0.00,,---,0.24,VWS V13.01,2013-06-20 20:08:00,
2013-06-20 13:09:00,59.4,54.9,29.53,SW,231,3.1,3.1,85,0.00,,---,0.24,VWS V13.01,2013-06-20 20:09:00,
2013-06-20 13:11:00,59.5,55.0,29.53,SSW,208,0.0,0.0,85,0.00,,---,0.24,VWS V13.01,2013-06-20 20:11:00,
2013-06-20 13:12:00,59.4,54.9,29.53,NNW,330,2.7,2.7,85,0.00,,---,0.24,VWS V13.01,2013-06-20 20:12:00,
2013-06-20 13:13:00,59.4,54.9,29.53,NNW,330,2.7,2.7,85,0.00,,---,0.28,VWS V13.01,2013-06-20 20:13:00,
2013-06-20 13:14:00,59.2,54.7,29.53,NW,309,3.6,3.6,85,0.04,,---,0.28,VWS V13.01,2013-06-20 20:14:00,
2013-06-20 13:16:00,59.2,54.7,29.53,NW,309,3.6,3.6,85,0.04,,---,0.28,VWS V13.01,2013-06-20 20:16:00,
2013-06-20 13:17:00,59.2,54.7,29.53,NW,309,3.6,3.6,85,0.04,,---,0.28,VWS V13.01,2013-06-20 20:17:00,
2013-06-20 13:18:00,59.2,54.7,29.53,SW,220,2.2,2.2,85,0.04,,---,0.28,VWS V13.01,2013-06-20 20:18:00,
2013-06-20 13:19:00,59.2,54.7,29.53,WNW,289,4.0,4.0,85,0.04,,---,0.28,VWS V13.01,2013-06-20 20:19:00,
2013-06-20 13:20:00,59.2,54.7,29.53,WNW,289,4.0,4.0,85,0.04,,---,0.28,VWS V13.01,2013-06-20 20:20:00,
2013-06-20 13:21:00,59.2,54.7,29.53,WNW,289,4.0,4.0,85,0.04,,---,0.28,VWS V13.01,2013-06-20 20:21:00,
2013-06-20 13:22:00,59.2,54.7,29.53,WNW,289,4.0,4.0,85,0.04,,---,0.28,VWS V13.01,2013-06-20 20:22:00,
2013-06-20 13:23:00,59.2,54.7,29.53,WSW,245,2.7,4.0,85,0.04,,---,0.28,VWS V13.01,2013-06-20 20:23:00,
2013-06-20 13:25:00,59.2,54.7,29.53,WSW,245,2.7,2.7,85,0.04,,---,0.28,VWS V13.01,2013-06-20 20:25:00,
2013-06-20 13:26:00,59.2,54.7,29.53,NNE,20,3.6,3.6,85,0.04,,---,0.28,VWS V13.01,2013-06-20 20:26:00,
2013-06-20 13:27:00,59.4,54.5,29.53,NNE,20,3.6,3.6,84,0.04,,---,0.28,VWS V13.01,2013-06-20 20:27:00,
2013-06-20 13:28:00,59.2,54.4,29.53,WNW,292,0.0,3.6,84,0.04,,---,0.28,VWS V13.01,2013-06-20 20:28:00,
2013-06-20 13:30:00,59.2,54.4,29.53,WNW,292,0.0,0.0,84,0.04,,---,0.28,VWS V13.01,2013-06-20 20:30:00,
2013-06-20 13:31:00,59.2,54.4,29.53,South,174,2.7,2.7,84,0.04,,---,0.28,VWS V13.01,2013-06-20 20:31:00,
2013-06-20 13:32:00,59.4,54.5,29.53,West,277,3.1,3.1,84,0.04,,---,0.28,VWS V13.01,2013-06-20 20:32:00,
2013-06-20 13:33:00,59.4,54.5,29.53,West,277,3.1,3.1,84,0.04,,---,0.28,VWS V13.01,2013-06-20 20:33:00,
2013-06-20 13:35:00,59.4,54.5,29.53,West,277,3.1,3.1,84,0.04,,---,0.28,VWS V13.01,2013-06-20 20:35:00,
2013-06-20 13:36:00,59.4,54.5,29.53,West,277,3.1,3.1,84,0.04,,---,0.28,VWS V13.01,2013-06-20 20:36:00,
2013-06-20 13:38:00,59.2,54.4,29.53,WNW,297,2.2,2.2,84,0.04,,---,0.28,VWS V13.01,2013-06-20 20:38:00,
2013-06-20 13:39:00,59.2,54.4,29.53,SW,232,2.7,2.7,84,0.04,,---,0.28,VWS V13.01,2013-06-20 20:39:00,
2013-06-20 13:40:00,59.2,54.4,29.53,WSW,248,2.7,2.7,84,0.04,,---,0.28,VWS V13.01,2013-06-20 20:40:00,
2013-06-20 13:41:00,59.0,54.2,29.53,WSW,248,2.7,2.7,84,0.04,,---,0.28,VWS V13.01,2013-06-20 20:41:00,
2013-06-20 13:43:00,59.0,54.2,29.53,SW,226,0.0,0.0,84,0.04,,---,0.28,VWS V13.01,2013-06-20 20:43:00,
2013-06-20 13:44:00,59.0,54.2,29.53,NW,313,0.0,0.0,84,0.04,,---,0.28,VWS V13.01,2013-06-20 20:44:00,
2013-06-20 13:45:00,59.0,54.2,29.53,NW,313,0.0,0.0,84,0.04,,---,0.28,VWS V13.01,2013-06-20 20:45:00,
2013-06-20 13:46:00,59.2,54.7,29.53,NW,313,0.0,0.0,85,0.04,,---,0.28,VWS V13.01,2013-06-20 20:46:00,
2013-06-20 13:48:00,59.2,54.7,29.53,NW,313,0.0,0.0,85,0.04,,---,0.28,VWS V13.01,2013-06-20 20:48:00,
2013-06-20 13:49:00,59.2,54.4,29.53,NW,313,0.0,0.0,84,0.04,,---,0.28,VWS V13.01,2013-06-20 20:49:00,
2013-06-20 13:50:00,59.2,54.4,29.53,WSW,257,0.0,0.0,84,0.04,,---,0.28,VWS V13.01,2013-06-20 20:50:00,
2013-06-20 13:51:00,59.2,54.4,29.53,WSW,257,0.0,0.0,84,0.04,,---,0.28,VWS V13.01,2013-06-20 20:51:00,
2013-06-20 13:53:00,59.2,54.4,29.53,WNW,284,4.9,4.9,84,0.04,,---,0.28,VWS V13.01,2013-06-20 20:53:00,
2013-06-20 13:54:00,59.2,54.4,29.53,WSW,241,3.1,4.9,84,0.04,,---,0.28,VWS V13.01,2013-06-20 20:54:00,
2013-06-20 13:55:00,59.2,54.4,29.53,WSW,241,3.1,3.1,84,0.04,,---,0.28,VWS V13.01,2013-06-20 20:55:00,
2013-06-20 13:56:00,59.0,54.2,29.53,WSW,241,3.1,3.1,84,0.04,,---,0.28,VWS V13.01,2013-06-20 20:56:00,
2013-06-20 13:57:00,59.0,54.2,29.53,WSW,241,3.1,3.1,84,0.04,,---,0.28,VWS V13.01,2013-06-20 20:57:00,
2013-06-20 13:58:00,59.0,54.2,29.53,WSW,241,3.1,3.1,84,0.04,,---,0.28,VWS V13.01,2013-06-20 20:58:00,
2013-06-20 13:59:00,58.8,54.0,29.53,West,266,3.6,3.6,84,0.04,,---,0.28,VWS V13.01,2013-06-20 20:59:00,
2013-06-20 14:00:00,58.8,54.0,29.53,West,266,3.6,3.6,84,0.04,,---,0.28,VWS V13.01,2013-06-20 21:00:00,
2013-06-20 14:01:00,59.0,53.8,29.53,West,261,3.6,3.6,83,0.04,,---,0.28,VWS V13.01,2013-06-20 21:01:00,
2013-06-20 14:02:00,59.0,53.8,29.53,West,261,3.6,3.6,83,0.04,,---,0.28,VWS V13.01,2013-06-20 21:02:00,
2013-06-20 14:03:00,58.8,54.0,29.53,WNW,283,2.7,3.6,84,0.04,,---,0.28,VWS V13.01,2013-06-20 21:03:00,
2013-06-20 14:04:00,58.8,54.0,29.53,WNW,282,2.7,2.7,84,0.04,,---,0.28,VWS V13.01,2013-06-20 21:04:00,
2013-06-20 14:06:00,58.8,54.0,29.53,SSW,211,4.0,4.0,84,0.04,,---,0.28,VWS V13.01,2013-06-20 21:06:00,
2013-06-20 14:07:00,58.8,54.0,29.53,SSW,211,4.0,4.0,84,0.04,,---,0.28,VWS V13.01,2013-06-20 21:07:00,
2013-06-20 14:08:00,58.8,54.0,29.53,WSW,242,0.0,0.0,84,0.04,,---,0.28,VWS V13.01,2013-06-20 21:08:00,
2013-06-20 14:09:00,58.8,54.0,29.53,WSW,242,0.0,0.0,84,0.04,,---,0.28,VWS V13.01,2013-06-20 21:09:00,
2013-06-20 14:11:00,58.8,54.0,29.53,WSW,242,0.0,0.0,84,0.04,,---,0.28,VWS V13.01,2013-06-20 21:11:00,
2013-06-20 14:12:00,59.0,53.8,29.53,SE,144,2.7,2.7,83,0.04,,---,0.28,VWS V13.01,2013-06-20 21:12:00,
2013-06-20 14:13:00,59.0,53.8,29.53,SW,216,3.6,3.6,83,0.04,,---,0.28,VWS V13.01,2013-06-20 21:13:00,
2013-06-20 14:15:00,58.8,54.0,29.53,WNW,284,4.0,4.0,84,0.00,,---,0.28,VWS V13.01,2013-06-20 21:15:00,
2013-06-20 14:16:00,58.8,54.0,29.53,WNW,284,4.0,4.0,84,0.00,,---,0.28,VWS V13.01,2013-06-20 21:16:00,
2013-06-20 14:17:00,58.8,54.0,29.53,SSE,159,2.7,6.3,84,0.00,,---,0.28,VWS V13.01,2013-06-20 21:17:00,
2013-06-20 14:19:00,58.8,54.0,29.53,ESE,118,2.7,2.7,84,0.00,,---,0.28,VWS V13.01,2013-06-20 21:19:00,
2013-06-20 14:20:00,59.0,53.8,29.53,ESE,118,2.7,2.7,83,0.00,,---,0.28,VWS V13.01,2013-06-20 21:20:00,
2013-06-20 14:21:00,58.8,54.0,29.53,SSW,211,2.2,2.7,84,0.00,,---,0.28,VWS V13.01,2013-06-20 21:21:00,
2013-06-20 14:22:00,58.8,54.0,29.53,SSW,211,2.2,2.2,84,0.00,,---,0.28,VWS V13.01,2013-06-20 21:22:00,
2013-06-20 14:24:00,58.6,53.8,29.53,North,3,0.0,2.2,84,0.00,,---,0.28,VWS V13.01,2013-06-20 21:24:00,
2013-06-20 14:25:00,58.6,53.8,29.53,North,3,0.0,0.0,84,0.00,,---,0.28,VWS V13.01,2013-06-20 21:25:00,
2013-06-20 14:26:00,58.6,53.8,29.53,WNW,283,2.7,2.7,84,0.00,,---,0.28,VWS V13.01,2013-06-20 21:26:00,
2013-06-20 14:27:00,58.6,53.8,29.53,WNW,283,2.7,2.7,84,0.00,,---,0.28,VWS V13.01,2013-06-20 21:27:00,
2013-06-20 14:29:00,58.6,53.8,29.53,WNW,283,2.7,2.7,84,0.00,,---,0.28,VWS V13.01,2013-06-20 21:29:00,
2013-06-20 14:30:00,58.8,54.0,29.53,West,274,7.6,7.6,84,0.00,,---,0.28,VWS V13.01,2013-06-20 21:30:00,
2013-06-20 14:31:00,58.6,53.8,29.53,West,274,7.6,7.6,84,0.00,,---,0.28,VWS V13.01,2013-06-20 21:31:00,
2013-06-20 14:32:00,58.6,53.8,29.53,SW,226,3.6,3.6,84,0.00,,---,0.28,VWS V13.01,2013-06-20 21:32:00,
2013-06-20 14:34:00,58.6,53.8,29.53,SW,226,3.6,3.6,84,0.00,,---,0.28,VWS V13.01,2013-06-20 21:34:00,
2013-06-20 14:35:00,58.6,53.8,29.53,WSW,239,2.2,2.2,84,0.00,,---,0.28,VWS V13.01,2013-06-20 21:35:00,
2013-06-20 14:37:00,58.5,53.7,29.53,East,100,2.7,2.7,84,0.00,,---,0.28,VWS V13.01,2013-06-20 21:37:00,
2013-06-20 14:39:00,58.5,53.7,29.53,NW,320,0.0,0.0,84,0.00,,---,0.28,VWS V13.01,2013-06-20 21:39:00,
2013-06-20 14:40:00,58.5,53.7,29.53,NW,320,0.0,0.0,84,0.00,,---,0.28,VWS V13.01,2013-06-20 21:40:00,
2013-06-20 14:42:00,58.5,54.0,29.53,NW,320,0.0,0.0,85,0.00,,---,0.28,VWS V13.01,2013-06-20 21:42:00,
2013-06-20 14:44:00,58.5,54.0,29.53,NE,35,3.1,3.1,85,0.00,,---,0.28,VWS V13.01,2013-06-20 21:44:00,
2013-06-20 14:45:00,58.5,54.0,29.53,SW,222,0.0,3.1,85,0.00,,---,0.28,VWS V13.01,2013-06-20 21:45:00,
2013-06-20 14:47:00,58.6,54.2,29.53,SW,222,0.0,0.0,85,0.00,,---,0.28,VWS V13.01,2013-06-20 21:47:00,
2013-06-20 14:48:00,58.5,54.0,29.56,WSW,248,2.2,2.2,85,0.00,,---,0.28,VWS V13.01,2013-06-20 21:48:00,
2013-06-20 14:49:00,58.5,54.0,29.56,WSW,248,2.2,2.2,85,0.00,,---,0.28,VWS V13.01,2013-06-20 21:49:00,
2013-06-20 14:50:00,58.5,54.0,29.56,WNW,284,2.2,2.2,85,0.00,,---,0.28,VWS V13.01,2013-06-20 21:50:00,
2013-06-20 14:52:00,58.5,54.0,29.56,SSE,164,0.0,2.2,85,0.00,,---,0.28,VWS V13.01,2013-06-20 21:52:00,
2013-06-20 14:53:00,58.5,54.0,29.56,SSE,164,0.0,0.0,85,0.00,,---,0.28,VWS V13.01,2013-06-20 21:53:00,
2013-06-20 14:54:00,58.5,54.0,29.56,SSE,164,0.0,0.0,85,0.00,,---,0.28,VWS V13.01,2013-06-20 21:54:00,
2013-06-20 14:55:00,58.5,54.0,29.56,SSE,164,0.0,0.0,85,0.00,,---,0.28,VWS V13.01,2013-06-20 21:55:00,
2013-06-20 14:57:00,58.6,54.2,29.56,East,85,0.0,0.0,85,0.00,,---,0.28,VWS V13.01,2013-06-20 21:57:00,
2013-06-20 14:58:00,58.6,54.2,29.56,East,85,0.0,0.0,85,0.00,,---,0.28,VWS V13.01,2013-06-20 21:58:00,
2013-06-20 14:59:00,58.6,54.2,29.56,NNW,344,0.0,0.0,85,0.00,,---,0.28,VWS V13.01,2013-06-20 21:59:00,
2013-06-20 15:01:00,58.6,54.2,29.56,NNW,344,0.0,0.0,85,0.00,,---,0.28,VWS V13.01,2013-06-20 22:01:00,
2013-06-20 15:02:00,58.6,54.2,29.56,SSW,204,3.1,3.1,85,0.00,,---,0.28,VWS V13.01,2013-06-20 22:02:00,
2013-06-20 15:03:00,58.6,54.2,29.56,SSW,204,3.1,3.1,85,0.00,,---,0.28,VWS V13.01,2013-06-20 22:03:00,
2013-06-20 15:04:00,58.6,54.2,29.56,SSW,204,3.1,3.1,85,0.00,,---,0.28,VWS V13.01,2013-06-20 22:04:00,
2013-06-20 15:06:00,58.6,54.2,29.56,WSW,252,3.1,3.1,85,0.04,,---,0.31,VWS V13.01,2013-06-20 22:06:00,
2013-06-20 15:08:00,58.6,54.2,29.56,WSW,249,0.0,0.0,85,0.04,,---,0.31,VWS V13.01,2013-06-20 22:08:00,
2013-06-20 15:09:00,58.6,54.2,29.56,WSW,249,0.0,0.0,85,0.04,,---,0.31,VWS V13.01,2013-06-20 22:09:00,
2013-06-20 15:11:00,58.5,54.0,29.56,WSW,247,4.0,4.0,85,0.04,,---,0.31,VWS V13.01,2013-06-20 22:11:00,
2013-06-20 15:13:00,58.5,54.0,29.56,SW,230,4.5,4.5,85,0.04,,---,0.31,VWS V13.01,2013-06-20 22:13:00,
2013-06-20 15:14:00,58.5,54.0,29.56,SW,230,4.5,4.5,85,0.04,,---,0.31,VWS V13.01,2013-06-20 22:14:00,
2013-06-20 15:15:00,58.5,54.0,29.56,WNW,287,0.0,0.0,85,0.04,,---,0.31,VWS V13.01,2013-06-20 22:15:00,
2013-06-20 15:16:00,58.6,54.2,29.56,WNW,287,0.0,0.0,85,0.04,,---,0.31,VWS V13.01,2013-06-20 22:16:00,
2013-06-20 15:18:00,58.8,54.3,29.56,WNW,288,0.0,0.0,85,0.04,,---,0.31,VWS V13.01,2013-06-20 22:18:00,
2013-06-20 15:19:00,58.8,54.7,29.56,SW,216,2.7,2.7,86,0.04,,---,0.31,VWS V13.01,2013-06-20 22:19:00,
2013-06-20 15:20:00,58.8,54.7,29.56,SW,216,2.7,2.7,86,0.04,,---,0.31,VWS V13.01,2013-06-20 22:20:00,
2013-06-20 15:22:00,58.8,54.3,29.56,SSW,199,0.0,0.0,85,0.04,,---,0.31,VWS V13.01,2013-06-20 22:22:00,
2013-06-20 15:23:00,58.8,54.3,29.56,WSW,240,5.8,5.8,85,0.04,,---,0.31,VWS V13.01,2013-06-20 22:23:00,
2013-06-20 15:24:00,58.8,54.3,29.56,WSW,240,5.8,5.8,85,0.04,,---,0.31,VWS V13.01,2013-06-20 22:24:00,
2013-06-20 15:25:00,58.6,54.2,29.56,SW,214,0.0,5.8,85,0.04,,---,0.31,VWS V13.01,2013-06-20 22:25:00,
2013-06-20 15:27:00,58.6,54.2,29.56,SW,214,0.0,0.0,85,0.04,,---,0.31,VWS V13.01,2013-06-20 22:27:00,
2013-06-20 15:28:00,58.6,54.2,29.56,SSW,199,3.6,3.6,85,0.04,,---,0.31,VWS V13.01,2013-06-20 22:28:00,
2013-06-20 15:29:00,58.6,54.2,29.56,SSW,196,2.7,3.6,85,0.04,,---,0.31,VWS V13.01,2013-06-20 22:29:00,
2013-06-20 15:30:00,58.6,54.2,29.56,SSW,196,2.7,2.7,85,0.04,,---,0.31,VWS V13.01,2013-06-20 22:30:00,
2013-06-20 15:32:00,58.6,54.2,29.56,SSW,196,3.6,3.6,85,0.04,,---,0.31,VWS V13.01,2013-06-20 22:32:00,
2013-06-20 15:33:00,58.6,54.2,29.56,SSW,196,3.6,3.6,85,0.04,,---,0.31,VWS V13.01,2013-06-20 22:33:00,
2013-06-20 15:34:00,58.6,54.2,29.56,SSW,196,3.6,3.6,85,0.04,,---,0.31,VWS V13.01,2013-06-20 22:34:00,
2013-06-20 15:35:00,58.6,54.2,29.56,SSW,196,3.6,3.6,85,0.04,,---,0.31,VWS V13.01,2013-06-20 22:35:00,
2013-06-20 15:37:00,58.6,54.2,29.56,WSW,255,4.0,4.0,85,0.04,,---,0.31,VWS V13.01,2013-06-20 22:37:00,
2013-06-20 15:38:00,58.6,54.2,29.56,SW,229,3.1,4.0,85,0.04,,---,0.31,VWS V13.01,2013-06-20 22:38:00,
2013-06-20 15:39:00,58.6,54.2,29.56,SW,229,3.1,4.0,85,0.04,,---,0.31,VWS V13.01,2013-06-20 22:39:00,
2013-06-20 15:40:00,58.6,54.2,29.56,SW,229,3.1,3.1,85,0.04,,---,0.31,VWS V13.01,2013-06-20 22:40:00,
2013-06-20 15:42:00,58.5,54.0,29.56,SSW,209,3.1,4.0,85,0.04,,---,0.31,VWS V13.01,2013-06-20 22:42:00,
2013-06-20 15:44:00,58.6,54.2,29.56,SSW,209,3.1,3.1,85,0.04,,---,0.31,VWS V13.01,2013-06-20 22:44:00,
2013-06-20 15:45:00,58.6,54.2,29.56,SSW,209,3.1,3.1,85,0.04,,---,0.31,VWS V13.01,2013-06-20 22:45:00,
2013-06-20 15:46:00,58.5,54.0,29.56,SE,140,0.0,3.1,85,0.04,,---,0.31,VWS V13.01,2013-06-20 22:46:00,
2013-06-20 15:47:00,58.6,54.2,29.56,SE,140,0.0,0.0,85,0.04,,---,0.31,VWS V13.01,2013-06-20 22:47:00,
2013-06-20 15:49:00,58.6,54.2,29.56,SE,140,0.0,0.0,85,0.04,,---,0.31,VWS V13.01,2013-06-20 22:49:00,
2013-06-20 15:50:00,58.5,54.0,29.56,SW,234,3.1,3.1,85,0.04,,---,0.31,VWS V13.01,2013-06-20 22:50:00,
2013-06-20 15:51:00,58.5,53.7,29.56,SW,234,3.1,3.1,84,0.04,,---,0.31,VWS V13.01,2013-06-20 22:51:00,
2013-06-20 15:53:00,58.3,53.5,29.56,WNW,287,2.7,2.7,84,0.04,,---,0.31,VWS V13.01,2013-06-20 22:53:00,
2013-06-20 15:54:00,58.3,53.8,29.56,WNW,301,2.7,2.7,85,0.04,,---,0.31,VWS V13.01,2013-06-20 22:54:00,
2013-06-20 15:55:00,58.3,53.8,29.56,WNW,301,0.0,0.0,85,0.04,,---,0.31,VWS V13.01,2013-06-20 22:55:00,
2013-06-20 15:56:00,58.3,53.8,29.56,South,170,0.0,0.0,85,0.04,,---,0.31,VWS V13.01,2013-06-20 22:56:00,
2013-06-20 15:58:00,58.5,54.0,29.56,South,170,0.0,0.0,85,0.04,,---,0.31,VWS V13.01,2013-06-20 22:58:00,
2013-06-20 15:59:00,58.5,54.0,29.56,SSW,208,5.4,5.4,85,0.04,,---,0.31,VWS V13.01,2013-06-20 22:59:00,
2013-06-20 16:00:00,58.5,54.0,29.56,SSW,208,5.4,5.4,85,0.04,,---,0.31,VWS V13.01,2013-06-20 23:00:00,
2013-06-20 16:01:00,58.5,54.0,29.56,SSW,208,5.4,5.4,85,0.04,,---,0.31,VWS V13.01,2013-06-20 23:01:00,
2013-06-20 16:03:00,58.5,54.0,29.56,South,182,2.7,2.7,85,0.04,,---,0.31,VWS V13.01,2013-06-20 23:03:00,
2013-06-20 16:04:00,58.5,54.0,29.56,South,182,2.7,2.7,85,0.04,,---,0.31,VWS V13.01,2013-06-20 23:04:00,
2013-06-20 16:05:00,58.6,54.2,29.56,SSW,200,7.2,7.2,85,0.04,,---,0.31,VWS V13.01,2013-06-20 23:05:00,
2013-06-20 16:06:00,58.6,54.2,29.56,SSW,200,7.2,7.2,85,0.00,,---,0.31,VWS V13.01,2013-06-20 23:06:00,
2013-06-20 16:08:00,58.5,54.0,29.56,SW,225,2.2,2.2,85,0.00,,---,0.31,VWS V13.01,2013-06-20 23:08:00,
2013-06-20 16:09:00,58.5,54.0,29.56,SW,225,2.2,2.2,85,0.00,,---,0.31,VWS V13.01,2013-06-20 23:09:00,
2013-06-20 16:10:00,58.5,54.0,29.56,SW,225,2.2,2.2,85,0.00,,---,0.31,VWS V13.01,2013-06-20 23:10:00,
2013-06-20 16:11:00,58.5,54.0,29.56,SW,225,2.2,2.2,85,0.00,,---,0.31,VWS V13.01,2013-06-20 23:11:00,
2013-06-20 16:13:00,58.3,53.8,29.56,West,265,4.0,4.0,85,0.00,,---,0.31,VWS V13.01,2013-06-20 23:13:00,
2013-06-20 16:14:00,58.3,53.8,29.56,West,265,4.0,4.0,85,0.00,,---,0.31,VWS V13.01,2013-06-20 23:14:00,
2013-06-20 16:15:00,58.3,53.8,29.56,West,265,4.0,4.0,85,0.00,,---,0.31,VWS V13.01,2013-06-20 23:15:00,
2013-06-20 16:16:00,58.3,53.8,29.56,WNW,282,5.8,7.6,85,0.00,,---,0.31,VWS V13.01,2013-06-20 23:16:00,
2013-06-20 16:18:00,58.3,53.8,29.56,NW,309,3.6,5.8,85,0.00,,---,0.31,VWS V13.01,2013-06-20 23:18:00,
2013-06-20 16:19:00,58.3,53.8,29.56,NW,309,3.6,3.6,85,0.00,,---,0.31,VWS V13.01,2013-06-20 23:19:00,
2013-06-20 16:20:00,58.3,53.8,29.56,NW,309,3.6,3.6,85,0.00,,---,0.31,VWS V13.01,2013-06-20 23:20:00,
2013-06-20 16:21:00,58.3,53.8,29.56,SW,228,2.7,2.7,85,0.00,,---,0.31,VWS V13.01,2013-06-20 23:21:00,
2013-06-20 16:24:00,58.5,54.3,29.56,SW,228,2.7,2.7,86,0.00,,---,0.31,VWS V13.01,2013-06-20 23:24:00,
2013-06-20 16:25:00,58.5,54.3,29.56,NW,311,6.3,6.3,86,0.00,,---,0.31,VWS V13.01,2013-06-20 23:25:00,
2013-06-20 16:26:00,58.5,54.3,29.56,SW,235,2.7,2.7,86,0.00,,---,0.31,VWS V13.01,2013-06-20 23:26:00,
2013-06-20 16:29:00,58.5,54.3,29.56,SW,220,5.4,5.4,86,0.00,,---,0.31,VWS V13.01,2013-06-20 23:29:00,
2013-06-20 16:30:00,58.5,54.3,29.56,SW,220,3.6,3.6,86,0.00,,---,0.31,VWS V13.01,2013-06-20 23:30:00,
2013-06-20 16:31:00,58.5,54.3,29.56,ESE,118,3.1,3.6,86,0.00,,---,0.31,VWS V13.01,2013-06-20 23:31:00,
2013-06-20 16:34:00,58.3,54.1,29.59,SSE,151,3.6,3.6,86,0.00,,---,0.31,VWS V13.01,2013-06-20 23:34:00,
2013-06-20 16:35:00,58.3,54.1,29.59,SSE,151,3.6,3.6,86,0.00,,---,0.31,VWS V13.01,2013-06-20 23:35:00,
2013-06-20 16:36:00,58.5,54.3,29.59,SW,225,3.6,3.6,86,0.00,,---,0.31,VWS V13.01,2013-06-20 23:36:00,
2013-06-20 16:39:00,58.3,54.1,29.59,South,178,0.0,0.0,86,0.00,,---,0.31,VWS V13.01,2013-06-20 23:39:00,
2013-06-20 16:40:00,58.3,54.1,29.59,South,178,0.0,0.0,86,0.00,,---,0.31,VWS V13.01,2013-06-20 23:40:00,
2013-06-20 16:41:00,58.3,54.1,29.59,South,178,0.0,0.0,86,0.00,,---,0.31,VWS V13.01,2013-06-20 23:41:00,
2013-06-20 16:44:00,58.3,54.1,29.59,South,178,0.0,0.0,86,0.00,,---,0.31,VWS V13.01,2013-06-20 23:44:00,
2013-06-20 16:45:00,58.5,54.6,29.59,South,178,0.0,0.0,87,0.00,,---,0.31,VWS V13.01,2013-06-20 23:45:00,
2013-06-20 16:46:00,58.1,54.3,29.59,NW,322,2.7,2.7,87,0.00,,---,0.31,VWS V13.01,2013-06-20 23:46:00,
2013-06-20 16:49:00,58.1,54.3,29.59,SSW,212,5.4,5.4,87,0.00,,---,0.31,VWS V13.01,2013-06-20 23:49:00,
2013-06-20 16:50:00,58.1,54.3,29.59,SSW,212,5.4,5.4,87,0.00,,---,0.31,VWS V13.01,2013-06-20 23:50:00,
2013-06-20 16:51:00,58.1,54.3,29.59,SSW,212,5.4,5.4,87,0.00,,---,0.31,VWS V13.01,2013-06-20 23:51:00,
2013-06-20 16:52:00,58.1,54.3,29.59,SSW,212,5.4,5.4,87,0.00,,---,0.31,VWS V13.01,2013-06-20 23:52:00,
2013-06-20 16:54:00,58.1,54.6,29.59,SSW,212,5.4,5.4,88,0.00,,---,0.31,VWS V13.01,2013-06-20 23:54:00,
2013-06-20 16:55:00,58.1,54.6,29.59,SSW,212,5.4,5.4,88,0.00,,---,0.31,VWS V13.01,2013-06-20 23:55:00,
2013-06-20 16:56:00,57.9,54.4,29.59,SSW,212,5.4,5.4,88,0.00,,---,0.31,VWS V13.01,2013-06-20 23:56:00,
2013-06-20 16:57:00,57.9,54.4,29.59,SW,218,3.6,3.6,88,0.00,,---,0.31,VWS V13.01,2013-06-20 23:57:00,
2013-06-20 16:59:00,57.9,54.7,29.59,NE,38,2.7,3.6,89,0.00,,---,0.31,VWS V13.01,2013-06-20 23:59:00,
2013-06-20 17:00:00,57.9,54.7,29.59,NE,38,2.7,2.7,89,0.00,,---,0.31,VWS V13.01,2013-06-21 00:00:00,
2013-06-20 17:01:00,57.9,54.7,29.59,East,94,0.0,0.0,89,0.00,,---,0.35,VWS V13.01,2013-06-21 00:01:00,
2013-06-20 17:02:00,57.9,54.7,29.59,East,94,0.0,0.0,89,0.04,,---,0.35,VWS V13.01,2013-06-21 00:02:00,
2013-06-20 17:04:00,57.9,54.7,29.59,East,94,0.0,0.0,89,0.04,,---,0.35,VWS V13.01,2013-06-21 00:04:00,
2013-06-20 17:05:00,57.9,54.7,29.59,East,94,0.0,0.0,89,0.04,,---,0.35,VWS V13.01,2013-06-21 00:05:00,
2013-06-20 17:06:00,57.7,54.5,29.59,East,94,0.0,0.0,89,0.04,,---,0.35,VWS V13.01,2013-06-21 00:06:00,
2013-06-20 17:07:00,57.9,54.7,29.59,East,94,0.0,0.0,89,0.04,,---,0.35,VWS V13.01,2013-06-21 00:07:00,
2013-06-20 17:09:00,57.9,54.7,29.59,SSW,199,0.0,0.0,89,0.04,,---,0.35,VWS V13.01,2013-06-21 00:09:00,
2013-06-20 17:10:00,57.9,54.7,29.59,SSW,199,0.0,0.0,89,0.04,,---,0.35,VWS V13.01,2013-06-21 00:10:00,
2013-06-20 17:11:00,57.9,54.7,29.59,SSW,199,0.0,0.0,89,0.04,,---,0.35,VWS V13.01,2013-06-21 00:11:00,
2013-06-20 17:12:00,57.6,54.3,29.59,SSW,199,0.0,0.0,89,0.04,,---,0.35,VWS V13.01,2013-06-21 00:12:00,
2013-06-20 17:14:00,57.4,54.2,29.59,NNE,25,0.0,0.0,89,0.04,,---,0.35,VWS V13.01,2013-06-21 00:14:00,
2013-06-20 17:15:00,57.4,54.2,29.59,NNE,25,0.0,0.0,89,0.04,,---,0.35,VWS V13.01,2013-06-21 00:15:00,
2013-06-20 17:16:00,57.4,54.2,29.59,NNE,25,0.0,0.0,89,0.04,,---,0.35,VWS V13.01,2013-06-21 00:16:00,
2013-06-20 17:17:00,57.6,54.3,29.59,NNE,25,0.0,0.0,89,0.04,,---,0.35,VWS V13.01,2013-06-21 00:17:00,
2013-06-20 17:19:00,57.6,54.3,29.59,WSW,241,2.2,2.2,89,0.04,,---,0.35,VWS V13.01,2013-06-21 00:19:00,
2013-06-20 17:21:00,57.2,54.0,29.59,WSW,241,2.2,2.2,89,0.04,,---,0.35,VWS V13.01,2013-06-21 00:21:00,
2013-06-20 17:22:00,57.4,54.5,29.59,WSW,241,0.0,2.2,90,0.04,,---,0.35,VWS V13.01,2013-06-21 00:22:00,
2013-06-20 17:24:00,57.6,54.7,29.59,WSW,241,0.0,0.0,90,0.04,,---,0.35,VWS V13.01,2013-06-21 00:24:00,
2013-06-20 17:26:00,57.6,54.7,29.59,WSW,241,0.0,0.0,90,0.04,,---,0.35,VWS V13.01,2013-06-21 00:26:00,
2013-06-20 17:28:00,57.7,54.8,29.59,WSW,244,0.0,0.0,90,0.04,,---,0.35,VWS V13.01,2013-06-21 00:28:00,
2013-06-20 17:30:00,57.7,54.8,29.59,WSW,244,0.0,0.0,90,0.04,,---,0.35,VWS V13.01,2013-06-21 00:30:00,
2013-06-20 17:31:00,57.7,54.8,29.59,WSW,244,0.0,0.0,90,0.04,,---,0.35,VWS V13.01,2013-06-21 00:31:00,
2013-06-20 17:33:00,57.6,54.7,29.59,NNW,331,0.0,0.0,90,0.04,,---,0.35,VWS V13.01,2013-06-21 00:33:00,
2013-06-20 17:35:00,57.4,54.5,29.59,WNW,283,0.0,0.0,90,0.08,,---,0.39,VWS V13.01,2013-06-21 00:35:00,
2013-06-20 17:36:00,57.4,54.5,29.59,WNW,283,0.0,0.0,90,0.08,,---,0.39,VWS V13.01,2013-06-21 00:36:00,
2013-06-20 17:38:00,57.6,54.7,29.59,East,88,0.0,0.0,90,0.08,,---,0.39,VWS V13.01,2013-06-21 00:38:00,
2013-06-20 17:40:00,57.2,54.3,29.59,East,88,0.0,0.0,90,0.08,,---,0.39,VWS V13.01,2013-06-21 00:40:00,
2013-06-20 17:41:00,57.2,54.3,29.59,East,88,0.0,0.0,90,0.08,,---,0.39,VWS V13.01,2013-06-21 00:41:00,
2013-06-20 17:42:00,57.2,54.3,29.59,East,88,0.0,0.0,90,0.08,,---,0.39,VWS V13.01,2013-06-21 00:42:00,
2013-06-20 17:43:00,57.4,54.5,29.59,East,88,0.0,0.0,90,0.08,,---,0.39,VWS V13.01,2013-06-21 00:43:00,
2013-06-20 17:45:00,57.2,54.3,29.59,East,88,0.0,0.0,90,0.08,,---,0.39,VWS V13.01,2013-06-21 00:45:00,
2013-06-20 17:46:00,57.2,54.3,29.59,East,88,0.0,0.0,90,0.08,,---,0.39,VWS V13.01,2013-06-21 00:46:00,
2013-06-20 17:47:00,57.2,54.3,29.62,East,88,0.0,0.0,90,0.08,,---,0.39,VWS V13.01,2013-06-21 00:47:00,
2013-06-20 17:48:00,57.2,54.3,29.62,East,88,0.0,0.0,90,0.08,,---,0.39,VWS V13.01,2013-06-21 00:48:00,
2013-06-20 17:50:00,57.2,54.3,29.62,East,88,0.0,0.0,90,0.08,,---,0.39,VWS V13.01,2013-06-21 00:50:00,
2013-06-20 17:51:00,57.0,54.4,29.62,East,88,0.0,0.0,91,0.08,,---,0.39,VWS V13.01,2013-06-21 00:51:00,
2013-06-20 17:52:00,57.0,54.4,29.62,NE,43,0.0,0.0,91,0.08,,---,0.39,VWS V13.01,2013-06-21 00:52:00,
2013-06-20 17:53:00,57.0,54.4,29.62,NE,43,0.0,0.0,91,0.08,,---,0.39,VWS V13.01,2013-06-21 00:53:00,
2013-06-20 17:55:00,57.0,54.4,29.62,NE,43,0.0,0.0,91,0.08,,---,0.39,VWS V13.01,2013-06-21 00:55:00,
2013-06-20 17:56:00,57.0,54.4,29.62,NE,43,0.0,0.0,91,0.08,,---,0.39,VWS V13.01,2013-06-21 00:56:00,
2013-06-20 17:57:00,57.0,54.4,29.62,NE,43,0.0,0.0,91,0.08,,---,0.39,VWS V13.01,2013-06-21 00:57:00,
2013-06-20 17:58:00,57.0,54.4,29.62,NE,43,0.0,0.0,91,0.08,,---,0.39,VWS V13.01,2013-06-21 00:58:00,
2013-06-20 18:00:00,56.8,54.2,29.62,NE,43,0.0,0.0,91,0.08,,---,0.39,VWS V13.01,2013-06-21 01:00:00,
2013-06-20 18:01:00,56.8,54.2,29.62,NE,43,0.0,0.0,91,0.08,,---,0.39,VWS V13.01,2013-06-21 01:01:00,
2013-06-20 18:02:00,56.7,54.1,29.62,NE,43,0.0,0.0,91,0.04,,---,0.39,VWS V13.01,2013-06-21 01:02:00,
2013-06-20 18:03:00,56.7,54.1,29.62,North,6,0.0,0.0,91,0.04,,---,0.39,VWS V13.01,2013-06-21 01:03:00,
2013-06-20 18:05:00,56.8,54.2,29.62,North,6,0.0,0.0,91,0.04,,---,0.39,VWS V13.01,2013-06-21 01:05:00,
2013-06-20 18:06:00,56.8,54.2,29.62,North,6,0.0,0.0,91,0.04,,---,0.39,VWS V13.01,2013-06-21 01:06:00,
2013-06-20 18:07:00,56.8,54.2,29.62,North,6,0.0,0.0,91,0.04,,---,0.39,VWS V13.01,2013-06-21 01:07:00,
2013-06-20 18:08:00,56.8,54.2,29.62,North,6,0.0,0.0,91,0.04,,---,0.39,VWS V13.01,2013-06-21 01:08:00,
2013-06-20 18:11:00,57.0,54.4,29.62,North,6,0.0,0.0,91,0.04,,---,0.39,VWS V13.01,2013-06-21 01:11:00,
2013-06-20 18:12:00,57.0,54.4,29.62,North,6,0.0,0.0,91,0.04,,---,0.39,VWS V13.01,2013-06-21 01:12:00,
2013-06-20 18:14:00,57.0,54.4,29.62,North,6,0.0,0.0,91,0.04,,---,0.39,VWS V13.01,2013-06-21 01:14:00,
2013-06-20 18:16:00,57.0,54.4,29.62,North,11,0.0,0.0,91,0.04,,---,0.39,VWS V13.01,2013-06-21 01:16:00,
2013-06-20 18:17:00,57.0,54.4,29.62,North,11,0.0,0.0,91,0.04,,---,0.39,VWS V13.01,2013-06-21 01:17:00,
2013-06-20 18:19:00,57.2,54.6,29.59,North,11,0.0,0.0,91,0.04,,---,0.39,VWS V13.01,2013-06-21 01:19:00,
2013-06-20 18:21:00,57.0,54.4,29.59,NW,304,0.0,0.0,91,0.04,,---,0.39,VWS V13.01,2013-06-21 01:21:00,
2013-06-20 18:22:00,56.7,54.1,29.59,NW,304,0.0,0.0,91,0.04,,---,0.39,VWS V13.01,2013-06-21 01:22:00,
2013-06-20 18:24:00,56.5,53.9,29.59,NW,304,0.0,0.0,91,0.04,,---,0.39,VWS V13.01,2013-06-21 01:24:00,
2013-06-20 18:26:00,56.5,53.9,29.59,North,2,0.0,0.0,91,0.04,,---,0.39,VWS V13.01,2013-06-21 01:26:00,
2013-06-20 18:27:00,56.5,53.9,29.59,North,2,0.0,0.0,91,0.04,,---,0.39,VWS V13.01,2013-06-21 01:27:00,
2013-06-20 18:29:00,56.7,54.1,29.59,NE,36,0.0,0.0,91,0.04,,---,0.39,VWS V13.01,2013-06-21 01:29:00,
2013-06-20 18:31:00,56.5,53.9,29.59,NE,36,0.0,0.0,91,0.04,,---,0.39,VWS V13.01,2013-06-21 01:31:00,
2013-06-20 18:32:00,56.7,54.1,29.62,NE,36,0.0,0.0,91,0.04,,---,0.39,VWS V13.01,2013-06-21 01:32:00,
2013-06-20 18:34:00,56.7,54.1,29.62,ESE,117,0.0,0.0,91,0.04,,---,0.39,VWS V13.01,2013-06-21 01:34:00,
2013-06-20 18:36:00,56.5,53.9,29.62,ESE,117,0.0,0.0,91,0.00,,---,0.39,VWS V13.01,2013-06-21 01:36:00,
2013-06-20 18:37:00,56.3,53.7,29.62,ESE,117,0.0,0.0,91,0.00,,---,0.39,VWS V13.01,2013-06-21 01:37:00,
2013-06-20 18:39:00,56.3,53.7,29.62,ESE,117,0.0,0.0,91,0.00,,---,0.39,VWS V13.01,2013-06-21 01:39:00,
2013-06-20 18:41:00,56.7,54.1,29.62,ESE,117,0.0,0.0,91,0.00,,---,0.39,VWS V13.01,2013-06-21 01:41:00,
2013-06-20 18:42:00,56.7,54.1,29.62,ESE,117,0.0,0.0,91,0.00,,---,0.39,VWS V13.01,2013-06-21 01:42:00,
2013-06-20 18:43:00,56.5,53.9,29.62,ESE,117,0.0,0.0,91,0.00,,---,0.39,VWS V13.01,2013-06-21 01:43:00,
2013-06-20 18:44:00,56.3,53.7,29.62,ESE,117,0.0,0.0,91,0.00,,---,0.39,VWS V13.01,2013-06-21 01:44:00,
2013-06-20 18:46:00,56.3,53.7,29.62,ESE,117,0.0,0.0,91,0.00,,---,0.39,VWS V13.01,2013-06-21 01:46:00,
2013-06-20 18:47:00,56.5,53.9,29.62,SSW,211,0.0,0.0,91,0.00,,---,0.39,VWS V13.01,2013-06-21 01:47:00,
2013-06-20 18:48:00,56.5,53.9,29.62,SSW,211,0.0,0.0,91,0.00,,---,0.39,VWS V13.01,2013-06-21 01:48:00,
2013-06-20 18:49:00,56.3,53.7,29.62,SSW,211,0.0,0.0,91,0.00,,---,0.39,VWS V13.01,2013-06-21 01:49:00,
2013-06-20 18:51:00,56.1,53.5,29.59,SSW,211,0.0,0.0,91,0.00,,---,0.39,VWS V13.01,2013-06-21 01:51:00,
2013-06-20 18:53:00,55.9,53.4,29.59,SSW,211,0.0,0.0,91,0.00,,---,0.39,VWS V13.01,2013-06-21 01:53:00,
2013-06-20 18:54:00,55.9,53.7,29.59,SSW,211,0.0,0.0,92,0.00,,---,0.39,VWS V13.01,2013-06-21 01:54:00,
2013-06-20 18:56:00,56.1,53.8,29.59,North,6,0.0,0.0,92,0.00,,---,0.39,VWS V13.01,2013-06-21 01:56:00,
2013-06-20 18:58:00,56.3,54.0,29.59,North,6,0.0,0.0,92,0.00,,---,0.39,VWS V13.01,2013-06-21 01:58:00,
2013-06-20 18:59:00,56.3,54.0,29.59,North,6,0.0,0.0,92,0.00,,---,0.39,VWS V13.01,2013-06-21 01:59:00,
2013-06-20 19:01:00,56.3,54.0,29.59,North,6,0.0,0.0,92,0.00,,---,0.39,VWS V13.01,2013-06-21 02:01:00,
2013-06-20 19:03:00,56.3,54.0,29.62,North,6,0.0,0.0,92,0.00,,---,0.39,VWS V13.01,2013-06-21 02:03:00,
2013-06-20 19:04:00,56.3,54.0,29.62,North,6,0.0,0.0,92,0.00,,---,0.39,VWS V13.01,2013-06-21 02:04:00,
2013-06-20 19:06:00,56.3,54.0,29.62,North,6,0.0,0.0,92,0.04,,---,0.43,VWS V13.01,2013-06-21 02:06:00,
2013-06-20 19:08:00,56.5,54.2,29.62,North,6,0.0,0.0,92,0.04,,---,0.43,VWS V13.01,2013-06-21 02:08:00,
2013-06-20 19:09:00,56.5,54.2,29.62,North,6,0.0,0.0,92,0.04,,---,0.43,VWS V13.01,2013-06-21 02:09:00,
2013-06-20 19:11:00,56.7,54.4,29.62,North,6,2.7,2.7,92,0.04,,---,0.43,VWS V13.01,2013-06-21 02:11:00,
2013-06-20 19:13:00,56.7,54.4,29.62,North,6,2.7,2.7,92,0.04,,---,0.43,VWS V13.01,2013-06-21 02:13:00,
2013-06-20 19:14:00,56.7,54.4,29.62,East,95,0.0,0.0,92,0.04,,---,0.43,VWS V13.01,2013-06-21 02:14:00,
2013-06-20 19:15:00,56.7,54.4,29.62,East,95,0.0,0.0,92,0.04,,---,0.43,VWS V13.01,2013-06-21 02:15:00,
2013-06-20 19:16:00,56.7,54.1,29.62,East,95,0.0,0.0,91,0.04,,---,0.43,VWS V13.01,2013-06-21 02:16:00,
2013-06-20 19:18:00,56.7,54.1,29.62,East,95,0.0,0.0,91,0.04,,---,0.43,VWS V13.01,2013-06-21 02:18:00,
2013-06-20 19:20:00,56.3,53.7,29.62,East,95,0.0,0.0,91,0.04,,---,0.43,VWS V13.01,2013-06-21 02:20:00,
2013-06-20 19:21:00,56.3,53.7,29.62,East,95,0.0,0.0,91,0.04,,---,0.43,VWS V13.01,2013-06-21 02:21:00,
2013-06-20 19:23:00,56.3,53.7,29.62,SSE,147,2.2,2.2,91,0.04,,---,0.43,VWS V13.01,2013-06-21 02:23:00,
2013-06-20 19:25:00,56.3,53.7,29.62,SSE,147,2.2,2.2,91,0.04,,---,0.43,VWS V13.01,2013-06-21 02:25:00,
2013-06-20 19:27:00,56.3,53.7,29.62,SSE,147,0.0,0.0,91,0.08,,---,0.47,VWS V13.01,2013-06-21 02:27:00,
2013-06-20 19:28:00,56.3,53.7,29.62,SSE,147,0.0,0.0,91,0.08,,---,0.47,VWS V13.01,2013-06-21 02:28:00,
2013-06-20 19:30:00,56.3,53.7,29.62,SSE,147,0.0,0.0,91,0.08,,---,0.47,VWS V13.01,2013-06-21 02:30:00,
2013-06-20 19:32:00,56.3,53.7,29.62,SE,124,0.0,0.0,91,0.08,,---,0.47,VWS V13.01,2013-06-21 02:32:00,
2013-06-20 19:33:00,56.3,53.7,29.62,SE,124,0.0,0.0,91,0.08,,---,0.47,VWS V13.01,2013-06-21 02:33:00,
2013-06-20 19:35:00,56.3,53.7,29.62,SE,124,0.0,0.0,91,0.08,,---,0.47,VWS V13.01,2013-06-21 02:35:00,
2013-06-20 19:37:00,56.3,53.7,29.62,SSE,157,0.0,0.0,91,0.08,,---,0.47,VWS V13.01,2013-06-21 02:37:00,
2013-06-20 19:38:00,56.3,53.7,29.62,SSE,157,0.0,0.0,91,0.08,,---,0.47,VWS V13.01,2013-06-21 02:38:00,
2013-06-20 19:40:00,56.3,53.7,29.62,SSE,157,0.0,0.0,91,0.08,,---,0.47,VWS V13.01,2013-06-21 02:40:00,
2013-06-20 19:42:00,56.1,53.5,29.62,SW,215,0.0,0.0,91,0.08,,---,0.47,VWS V13.01,2013-06-21 02:42:00,
2013-06-20 19:43:00,55.9,53.4,29.62,SW,215,0.0,0.0,91,0.08,,---,0.47,VWS V13.01,2013-06-21 02:43:00,
2013-06-20 19:44:00,55.9,53.4,29.62,West,279,2.7,2.7,91,0.08,,---,0.47,VWS V13.01,2013-06-21 02:44:00,
2013-06-20 19:45:00,55.8,53.2,29.62,West,279,2.7,2.7,91,0.08,,---,0.51,VWS V13.01,2013-06-21 02:45:00,
2013-06-20 19:46:00,55.6,53.0,29.62,West,279,2.7,2.7,91,0.12,,---,0.51,VWS V13.01,2013-06-21 02:46:00,
2013-06-20 19:47:00,55.4,53.1,29.62,West,279,2.7,2.7,92,0.12,,---,0.51,VWS V13.01,2013-06-21 02:47:00,
2013-06-20 19:49:00,55.4,53.1,29.62,West,279,2.7,2.7,92,0.12,,---,0.51,VWS V13.01,2013-06-21 02:49:00,
2013-06-20 19:50:00,55.2,52.9,29.62,WNW,287,2.7,2.7,92,0.12,,---,0.51,VWS V13.01,2013-06-21 02:50:00,
2013-06-20 19:51:00,55.2,52.9,29.62,WNW,287,2.7,2.7,92,0.12,,---,0.51,VWS V13.01,2013-06-21 02:51:00,
2013-06-20 19:53:00,55.0,52.8,29.62,WNW,287,2.7,2.7,92,0.12,,---,0.51,VWS V13.01,2013-06-21 02:53:00,
2013-06-20 19:54:00,55.2,52.9,29.62,NNW,339,0.0,0.0,92,0.12,,---,0.51,VWS V13.01,2013-06-21 02:54:00,
2013-06-20 19:55:00,55.2,52.9,29.62,NNW,339,0.0,0.0,92,0.12,,---,0.51,VWS V13.01,2013-06-21 02:55:00,
2013-06-20 19:56:00,55.2,52.9,29.62,NNW,339,0.0,0.0,92,0.12,,---,0.51,VWS V13.01,2013-06-21 02:56:00,
2013-06-20 19:58:00,55.4,53.1,29.62,NNW,339,0.0,0.0,92,0.12,,---,0.51,VWS V13.01,2013-06-21 02:58:00,
2013-06-20 19:59:00,55.4,53.1,29.62,NNW,339,0.0,0.0,92,0.20,,---,0.59,VWS V13.01,2013-06-21 02:59:00,
2013-06-20 20:00:00,55.6,53.3,29.62,NNW,339,0.0,0.0,92,0.20,,---,0.59,VWS V13.01,2013-06-21 03:00:00,
2013-06-20 20:01:00,55.6,53.3,29.62,NNW,339,0.0,0.0,92,0.20,,---,0.59,VWS V13.01,2013-06-21 03:01:00,
2013-06-20 20:03:00,55.4,53.1,29.62,East,90,0.0,0.0,92,0.20,,---,0.59,VWS V13.01,2013-06-21 03:03:00,
2013-06-20 20:04:00,55.4,53.1,29.62,East,90,0.0,0.0,92,0.20,,---,0.59,VWS V13.01,2013-06-21 03:04:00,
2013-06-20 20:05:00,55.6,53.3,29.62,East,90,0.0,0.0,92,0.20,,---,0.59,VWS V13.01,2013-06-21 03:05:00,
2013-06-20 20:06:00,55.6,53.3,29.62,East,90,0.0,0.0,92,0.20,,---,0.59,VWS V13.01,2013-06-21 03:06:00,
2013-06-20 20:08:00,55.6,53.3,29.62,East,87,0.0,0.0,92,0.16,,---,0.59,VWS V13.01,2013-06-21 03:08:00,
2013-06-20 20:09:00,55.4,53.1,29.62,East,87,0.0,0.0,92,0.16,,---,0.59,VWS V13.01,2013-06-21 03:09:00,
2013-06-20 20:10:00,55.4,53.1,29.62,East,87,0.0,0.0,92,0.16,,---,0.59,VWS V13.01,2013-06-21 03:10:00,
2013-06-20 20:11:00,55.2,53.2,29.62,East,87,0.0,0.0,93,0.16,,---,0.59,VWS V13.01,2013-06-21 03:11:00,
2013-06-20 20:13:00,55.2,53.2,29.62,East,87,0.0,0.0,93,0.16,,---,0.59,VWS V13.01,2013-06-21 03:13:00,
2013-06-20 20:14:00,55.2,53.2,29.62,SE,138,0.0,0.0,93,0.16,,---,0.59,VWS V13.01,2013-06-21 03:14:00,
2013-06-20 20:15:00,55.4,53.1,29.62,SE,138,0.0,0.0,92,0.16,,---,0.59,VWS V13.01,2013-06-21 03:15:00,
2013-06-20 20:17:00,55.4,53.1,29.62,SE,138,0.0,0.0,92,0.16,,---,0.59,VWS V13.01,2013-06-21 03:17:00,
2013-06-20 20:18:00,55.4,53.1,29.65,SE,138,0.0,0.0,92,0.16,,---,0.67,VWS V13.01,2013-06-21 03:18:00,
2013-06-20 20:19:00,55.4,53.1,29.65,SE,138,0.0,0.0,92,0.24,,---,0.67,VWS V13.01,2013-06-21 03:19:00,
2013-06-20 20:20:00,55.2,53.2,29.65,WSW,242,0.0,0.0,93,0.24,,---,0.67,VWS V13.01,2013-06-21 03:20:00,
2013-06-20 20:22:00,55.2,53.2,29.65,WSW,242,0.0,0.0,93,0.24,,---,0.67,VWS V13.01,2013-06-21 03:22:00,
2013-06-20 20:24:00,55.2,53.2,29.65,WSW,242,0.0,0.0,93,0.24,,---,0.67,VWS V13.01,2013-06-21 03:24:00,
2013-06-20 20:25:00,55.0,53.1,29.65,WSW,242,0.0,0.0,93,0.24,,---,0.67,VWS V13.01,2013-06-21 03:25:00,
2013-06-20 20:26:00,54.9,52.9,29.65,WSW,242,0.0,0.0,93,0.24,,---,0.67,VWS V13.01,2013-06-21 03:26:00,
2013-06-20 20:27:00,54.9,52.9,29.65,WSW,242,0.0,0.0,93,0.20,,---,0.67,VWS V13.01,2013-06-21 03:27:00,
2013-06-20 20:29:00,54.9,52.9,29.65,NNE,31,0.0,0.0,93,0.20,,---,0.67,VWS V13.01,2013-06-21 03:29:00,
2013-06-20 20:30:00,55.0,53.1,29.65,NNE,31,0.0,0.0,93,0.20,,---,0.67,VWS V13.01,2013-06-21 03:30:00,
2013-06-20 20:31:00,55.0,53.1,29.65,NNE,31,0.0,0.0,93,0.20,,---,0.67,VWS V13.01,2013-06-21 03:31:00,
2013-06-20 20:32:00,55.0,53.1,29.65,NNE,31,0.0,0.0,93,0.31,,---,0.79,VWS V13.01,2013-06-21 03:32:00,
2013-06-20 20:34:00,55.0,53.1,29.65,ENE,71,0.0,0.0,93,0.31,,---,0.79,VWS V13.01,2013-06-21 03:34:00,
2013-06-20 20:35:00,55.0,53.1,29.65,ENE,71,0.0,0.0,93,0.35,,---,0.83,VWS V13.01,2013-06-21 03:35:00,
2013-06-20 20:36:00,55.0,53.1,29.65,ENE,71,0.0,0.0,93,0.35,,---,0.83,VWS V13.01,2013-06-21 03:36:00,
2013-06-20 20:37:00,55.0,53.1,29.65,ENE,71,0.0,0.0,93,0.35,,---,0.83,VWS V13.01,2013-06-21 03:37:00,
2013-06-20 20:39:00,54.7,52.7,29.65,ENE,71,0.0,0.0,93,0.35,,---,0.83,VWS V13.01,2013-06-21 03:39:00,
2013-06-20 20:40:00,54.7,52.7,29.65,ENE,71,0.0,0.0,93,0.35,,---,0.83,VWS V13.01,2013-06-21 03:40:00,
2013-06-20 20:41:00,54.7,52.7,29.65,ENE,71,0.0,0.0,93,0.35,,---,0.83,VWS V13.01,2013-06-21 03:41:00,
2013-06-20 20:43:00,54.7,52.7,29.65,NNE,28,0.0,0.0,93,0.39,,---,0.87,VWS V13.01,2013-06-21 03:43:00,
2013-06-20 20:45:00,54.9,52.9,29.65,NNE,28,0.0,0.0,93,0.39,,---,0.87,VWS V13.01,2013-06-21 03:45:00,
2013-06-20 20:46:00,54.9,52.9,29.65,NNE,28,0.0,0.0,93,0.39,,---,0.87,VWS V13.01,2013-06-21 03:46:00,
2013-06-20 20:48:00,55.0,53.1,29.65,NNE,28,0.0,0.0,93,0.35,,---,0.91,VWS V13.01,2013-06-21 03:48:00,
2013-06-20 20:50:00,55.0,53.1,29.65,ENE,66,0.0,0.0,93,0.39,,---,0.91,VWS V13.01,2013-06-21 03:50:00,
2013-06-20 20:51:00,55.0,53.1,29.65,ENE,66,0.0,0.0,93,0.39,,---,0.94,VWS V13.01,2013-06-21 03:51:00,
2013-06-20 20:53:00,55.0,53.1,29.65,ENE,66,0.0,0.0,93,0.43,,---,0.98,VWS V13.01,2013-06-21 03:53:00,
2013-06-20 20:55:00,55.0,53.1,29.65,ENE,66,0.0,0.0,93,0.47,,---,0.98,VWS V13.01,2013-06-21 03:55:00,
2013-06-20 20:56:00,55.0,53.1,29.65,ENE,66,0.0,0.0,93,0.47,,---,0.98,VWS V13.01,2013-06-21 03:56:00,
2013-06-20 20:58:00,55.0,53.1,29.65,ENE,66,0.0,0.0,93,0.47,,---,0.98,VWS V13.01,2013-06-21 03:58:00,
2013-06-20 21:00:00,55.2,53.2,29.65,ENE,66,0.0,0.0,93,0.39,,---,0.98,VWS V13.01,2013-06-21 04:00:00,
2013-06-20 21:01:00,55.2,53.2,29.65,ENE,66,0.0,0.0,93,0.39,,---,0.98,VWS V13.01,2013-06-21 04:01:00,
2013-06-20 21:06:00,55.0,52.8,29.65,ENE,66,0.0,0.0,92,0.43,,---,1.02,VWS V13.01,2013-06-21 04:06:00,
2013-06-20 21:11:00,54.5,52.5,29.65,WSW,253,2.7,2.7,93,0.51,,---,1.10,VWS V13.01,2013-06-21 04:11:00,
2013-06-20 21:16:00,54.1,52.2,29.65,WSW,249,0.0,2.7,93,0.51,,---,1.10,VWS V13.01,2013-06-21 04:16:00,
2013-06-20 21:21:00,54.0,52.0,29.65,WSW,251,0.0,0.0,93,0.43,,---,1.10,VWS V13.01,2013-06-21 04:21:00,
2013-06-20 21:26:00,54.1,52.2,29.65,WSW,251,0.0,0.0,93,0.47,,---,1.14,VWS V13.01,2013-06-21 04:26:00,
2013-06-20 21:31:00,54.3,52.3,29.65,WSW,251,0.0,0.0,93,0.47,,---,1.14,VWS V13.01,2013-06-21 04:31:00,
2013-06-20 21:32:00,54.3,52.3,29.65,WSW,251,0.0,0.0,93,0.47,,---,1.14,VWS V13.01,2013-06-21 04:32:00,
2013-06-20 21:36:00,54.1,52.2,29.65,WSW,251,0.0,0.0,93,0.31,,---,1.14,VWS V13.01,2013-06-21 04:36:00,
2013-06-20 21:37:00,54.1,52.2,29.65,WSW,251,0.0,0.0,93,0.31,,---,1.14,VWS V13.01,2013-06-21 04:37:00,
2013-06-20 21:41:00,54.3,52.3,29.65,WSW,251,0.0,0.0,93,0.35,,---,1.18,VWS V13.01,2013-06-21 04:41:00,
2013-06-20 21:42:00,54.3,52.3,29.65,WSW,251,0.0,0.0,93,0.35,,---,1.18,VWS V13.01,2013-06-21 04:42:00,
2013-06-20 21:46:00,54.0,52.3,29.65,WSW,246,0.0,0.0,94,0.31,,---,1.22,VWS V13.01,2013-06-21 04:46:00,
2013-06-20 21:47:00,54.0,52.3,29.65,WSW,246,0.0,0.0,94,0.35,,---,1.22,VWS V13.01,2013-06-21 04:47:00,
2013-06-20 21:48:00,54.0,52.3,29.65,WSW,246,0.0,0.0,94,0.35,,---,1.22,VWS V13.01,2013-06-21 04:48:00,
2013-06-20 21:51:00,54.0,52.3,29.68,WSW,246,0.0,0.0,94,0.31,,---,1.22,VWS V13.01,2013-06-21 04:51:00,
2013-06-20 21:52:00,54.0,52.3,29.68,WSW,246,0.0,0.0,94,0.31,,---,1.22,VWS V13.01,2013-06-21 04:52:00,
2013-06-20 21:53:00,54.0,52.3,29.68,WSW,246,0.0,0.0,94,0.28,,---,1.22,VWS V13.01,2013-06-21 04:53:00,
2013-06-20 21:57:00,53.8,52.1,29.68,West,260,2.2,3.1,94,0.24,,---,1.22,VWS V13.01,2013-06-21 04:57:00,
2013-06-20 21:58:00,53.8,52.1,29.68,West,261,0.0,0.0,94,0.24,,---,1.22,VWS V13.01,2013-06-21 04:58:00,
2013-06-20 22:02:00,53.6,51.9,29.68,WNW,282,0.0,0.0,94,0.24,,---,1.22,VWS V13.01,2013-06-21 05:02:00,
2013-06-20 22:03:00,53.6,51.9,29.68,WNW,282,0.0,0.0,94,0.24,,---,1.22,VWS V13.01,2013-06-21 05:03:00,
2013-06-20 22:07:00,53.6,51.9,29.68,WNW,282,0.0,0.0,94,0.24,,---,1.26,VWS V13.01,2013-06-21 05:07:00,
2013-06-20 22:08:00,53.8,52.1,29.68,WNW,282,0.0,0.0,94,0.24,,---,1.26,VWS V13.01,2013-06-21 05:08:00,
2013-06-20 22:12:00,54.1,52.5,29.68,WNW,282,0.0,0.0,94,0.16,,---,1.26,VWS V13.01,2013-06-21 05:12:00,
2013-06-20 22:13:00,54.1,52.5,29.68,WNW,282,0.0,0.0,94,0.16,,---,1.26,VWS V13.01,2013-06-21 05:13:00,
2013-06-20 22:17:00,54.3,52.6,29.68,WNW,282,0.0,0.0,94,0.16,,---,1.26,VWS V13.01,2013-06-21 05:17:00,
2013-06-20 22:18:00,54.1,52.5,29.68,WNW,282,0.0,0.0,94,0.16,,---,1.26,VWS V13.01,2013-06-21 05:18:00,
2013-06-20 22:19:00,54.1,52.5,29.68,WNW,282,0.0,0.0,94,0.16,,---,1.26,VWS V13.01,2013-06-21 05:19:00,
2013-06-20 22:22:00,54.0,52.3,29.68,WNW,282,0.0,0.0,94,0.16,,---,1.26,VWS V13.01,2013-06-21 05:22:00,
2013-06-20 22:23:00,53.8,52.1,29.68,WNW,282,0.0,0.0,94,0.16,,---,1.26,VWS V13.01,2013-06-21 05:23:00,
2013-06-20 22:24:00,53.8,52.1,29.68,WSW,243,0.0,0.0,94,0.16,,---,1.26,VWS V13.01,2013-06-21 05:24:00,
2013-06-20 22:27:00,53.6,51.9,29.68,WSW,246,0.0,0.0,94,0.12,,---,1.26,VWS V13.01,2013-06-21 05:27:00,
2013-06-20 22:28:00,53.6,51.9,29.68,WSW,246,0.0,0.0,94,0.12,,---,1.26,VWS V13.01,2013-06-21 05:28:00,
2013-06-20 22:29:00,53.6,51.9,29.68,WSW,246,0.0,0.0,94,0.12,,---,1.26,VWS V13.01,2013-06-21 05:29:00,
2013-06-20 22:32:00,53.6,51.9,29.68,WSW,246,0.0,0.0,94,0.12,,---,1.26,VWS V13.01,2013-06-21 05:32:00,
2013-06-20 22:33:00,53.6,51.9,29.68,WSW,246,0.0,0.0,94,0.12,,---,1.26,VWS V13.01,2013-06-21 05:33:00,
2013-06-20 22:34:00,53.6,51.9,29.68,WSW,246,0.0,0.0,94,0.12,,---,1.26,VWS V13.01,2013-06-21 05:34:00,
2013-06-20 22:37:00,53.6,51.9,29.68,WSW,252,0.0,0.0,94,0.12,,---,1.26,VWS V13.01,2013-06-21 05:37:00,
2013-06-20 22:38:00,53.6,51.9,29.68,WSW,252,0.0,0.0,94,0.12,,---,1.26,VWS V13.01,2013-06-21 05:38:00,
2013-06-20 22:39:00,53.6,51.9,29.68,WSW,252,0.0,0.0,94,0.08,,---,1.26,VWS V13.01,2013-06-21 05:39:00,
2013-06-20 22:42:00,53.6,51.9,29.68,WSW,252,0.0,0.0,94,0.08,,---,1.26,VWS V13.01,2013-06-21 05:42:00,
2013-06-20 22:43:00,53.6,51.9,29.68,WSW,252,0.0,0.0,94,0.08,,---,1.26,VWS V13.01,2013-06-21 05:43:00,
2013-06-20 22:44:00,53.6,51.9,29.68,WSW,252,0.0,0.0,94,0.08,,---,1.26,VWS V13.01,2013-06-21 05:44:00,
2013-06-20 22:47:00,53.8,52.1,29.68,WSW,252,0.0,0.0,94,0.04,,---,1.26,VWS V13.01,2013-06-21 05:47:00,
2013-06-20 22:48:00,53.8,52.1,29.68,WSW,252,0.0,0.0,94,0.04,,---,1.26,VWS V13.01,2013-06-21 05:48:00,
2013-06-20 22:49:00,53.8,52.1,29.68,WSW,252,0.0,0.0,94,0.04,,---,1.26,VWS V13.01,2013-06-21 05:49:00,
2013-06-20 22:52:00,53.8,52.1,29.68,WSW,252,0.0,0.0,94,0.08,,---,1.30,VWS V13.01,2013-06-21 05:52:00,
2013-06-20 22:53:00,53.8,52.1,29.68,WSW,252,0.0,0.0,94,0.08,,---,1.30,VWS V13.01,2013-06-21 05:53:00,
2013-06-20 22:54:00,53.8,52.1,29.68,WSW,252,0.0,0.0,94,0.08,,---,1.30,VWS V13.01,2013-06-21 05:54:00,
2013-06-20 22:57:00,54.0,52.3,29.68,WSW,252,0.0,0.0,94,0.08,,---,1.30,VWS V13.01,2013-06-21 05:57:00,
2013-06-20 22:58:00,54.0,52.3,29.68,WSW,252,0.0,0.0,94,0.08,,---,1.30,VWS V13.01,2013-06-21 05:58:00,
2013-06-20 22:59:00,54.0,52.3,29.68,WSW,252,0.0,0.0,94,0.08,,---,1.30,VWS V13.01,2013-06-21 05:59:00,
2013-06-20 23:03:00,54.0,52.3,29.65,WNW,291,0.0,0.0,94,0.08,,---,1.30,VWS V13.01,2013-06-21 06:03:00,
2013-06-20 23:04:00,53.8,52.1,29.65,WNW,294,0.0,0.0,94,0.08,,---,1.30,VWS V13.01,2013-06-21 06:04:00,
2013-06-20 23:05:00,53.6,51.9,29.65,WNW,294,0.0,0.0,94,0.08,,---,1.30,VWS V13.01,2013-06-21 06:05:00,
2013-06-20 23:08:00,53.6,51.9,29.65,West,281,0.0,0.0,94,0.04,,---,1.30,VWS V13.01,2013-06-21 06:08:00,
2013-06-20 23:09:00,53.6,51.9,29.65,West,281,0.0,0.0,94,0.04,,---,1.30,VWS V13.01,2013-06-21 06:09:00,
2013-06-20 23:10:00,53.8,52.1,29.65,West,265,0.0,0.0,94,0.04,,---,1.30,VWS V13.01,2013-06-21 06:10:00,
2013-06-20 23:13:00,53.8,52.1,29.65,West,264,0.0,0.0,94,0.04,,---,1.30,VWS V13.01,2013-06-21 06:13:00,
2013-06-20 23:14:00,53.8,52.1,29.65,West,264,0.0,0.0,94,0.04,,---,1.30,VWS V13.01,2013-06-21 06:14:00,
2013-06-20 23:15:00,53.8,52.1,29.65,West,264,0.0,0.0,94,0.04,,---,1.30,VWS V13.01,2013-06-21 06:15:00,
2013-06-20 23:18:00,53.8,52.4,29.65,West,264,0.0,0.0,95,0.04,,---,1.30,VWS V13.01,2013-06-21 06:18:00,
2013-06-20 23:19:00,53.8,52.4,29.65,West,264,0.0,0.0,95,0.04,,---,1.30,VWS V13.01,2013-06-21 06:19:00,
2013-06-20 23:21:00,54.0,52.3,29.65,West,264,0.0,0.0,94,0.04,,---,1.30,VWS V13.01,2013-06-21 06:21:00,
2013-06-20 23:23:00,54.0,52.3,29.65,West,264,0.0,0.0,94,0.04,,---,1.30,VWS V13.01,2013-06-21 06:23:00,
2013-06-20 23:24:00,54.1,52.5,29.65,West,264,0.0,0.0,94,0.04,,---,1.30,VWS V13.01,2013-06-21 06:24:00,
2013-06-20 23:25:00,54.1,52.5,29.68,West,264,0.0,0.0,94,0.04,,---,1.30,VWS V13.01,2013-06-21 06:25:00,
2013-06-20 23:26:00,54.1,52.5,29.68,West,264,0.0,0.0,94,0.04,,---,1.30,VWS V13.01,2013-06-21 06:26:00,
2013-06-20 23:28:00,54.1,52.5,29.68,West,264,0.0,0.0,94,0.04,,---,1.30,VWS V13.01,2013-06-21 06:28:00,
2013-06-20 23:29:00,54.1,52.5,29.68,West,264,0.0,0.0,94,0.04,,---,1.30,VWS V13.01,2013-06-21 06:29:00,
2013-06-20 23:30:00,54.1,52.5,29.68,West,264,0.0,0.0,94,0.04,,---,1.30,VWS V13.01,2013-06-21 06:30:00,
2013-06-20 23:31:00,54.1,52.5,29.68,West,264,0.0,0.0,94,0.04,,---,1.30,VWS V13.01,2013-06-21 06:31:00,
2013-06-20 23:33:00,54.1,52.5,29.68,West,264,0.0,0.0,94,0.04,,---,1.30,VWS V13.01,2013-06-21 06:33:00,
2013-06-20 23:34:00,54.1,52.5,29.68,West,264,0.0,0.0,94,0.04,,---,1.30,VWS V13.01,2013-06-21 06:34:00,
2013-06-20 23:35:00,54.1,52.5,29.68,West,264,0.0,0.0,94,0.04,,---,1.30,VWS V13.01,2013-06-21 06:35:00,
2013-06-20 23:36:00,54.1,52.5,29.68,West,264,0.0,0.0,94,0.04,,---,1.30,VWS V13.01,2013-06-21 06:36:00,
2013-06-20 23:39:00,54.1,52.5,29.68,West,264,0.0,0.0,94,0.04,,---,1.30,VWS V13.01,2013-06-21 06:39:00,
2013-06-20 23:40:00,54.1,52.5,29.68,West,264,0.0,0.0,94,0.04,,---,1.30,VWS V13.01,2013-06-21 06:40:00,
2013-06-20 23:41:00,54.0,52.3,29.68,West,264,0.0,0.0,94,0.04,,---,1.30,VWS V13.01,2013-06-21 06:41:00,
2013-06-20 23:44:00,54.1,52.5,29.68,West,264,0.0,0.0,94,0.04,,---,1.30,VWS V13.01,2013-06-21 06:44:00,
2013-06-20 23:45:00,54.0,52.3,29.68,West,264,0.0,0.0,94,0.04,,---,1.30,VWS V13.01,2013-06-21 06:45:00,
2013-06-20 23:46:00,54.1,52.5,29.68,West,264,0.0,0.0,94,0.04,,---,1.30,VWS V13.01,2013-06-21 06:46:00,
2013-06-20 23:49:00,54.1,52.5,29.68,West,264,0.0,0.0,94,0.04,,---,1.30,VWS V13.01,2013-06-21 06:49:00,
2013-06-20 23:50:00,54.1,52.5,29.68,West,264,0.0,0.0,94,0.04,,---,1.30,VWS V13.01,2013-06-21 06:50:00,
2013-06-20 23:51:00,54.0,52.3,29.65,West,264,0.0,0.0,94,0.00,,---,1.30,VWS V13.01,2013-06-21 06:51:00,
2013-06-20 23:54:00,53.8,52.1,29.65,West,276,0.0,0.0,94,0.00,,---,1.30,VWS V13.01,2013-06-21 06:54:00,
2013-06-20 23:55:00,53.8,52.1,29.65,West,276,0.0,0.0,94,0.00,,---,1.30,VWS V13.01,2013-06-21 06:55:00,
2013-06-20 23:56:00,53.8,52.1,29.65,West,276,0.0,0.0,94,0.00,,---,1.30,VWS V13.01,2013-06-21 06:56:00,
2013-06-20 23:59:00,53.6,51.9,29.65,West,266,0.0,0.0,94,0.00,,---,1.30,VWS V13.01,2013-06-21 06:59:00,